[{"header": {"dx": 0.06612293990616946, "dy": 0.0552356325346848, "nx": 98, "ny": 59, "la1": 35.046912555036876, "la2": 31.78801023549047, "lo1": -121.43107172385933, "lo2": -114.95102361305473, "refTime": "2026041013", "parameterCategory": 1, "parameterNumber": 2}, "data": [1.13, 0.59, -0.0, -0.0, -0.0, -0.51, -0.61, -1.16, -0.65, -0.0, -0.0, -0.0, -0.0, -0.0, -0.0, -0.95, -0.89, -1.34, -1.34, -0.95, -0.0, -0.0, 1.2, 1.2, 1.88, 1.88, 2.86, 2.53, 2.15, 1.33, 0.61, -0.0, -0.0, -0.63, -1.2, -0.63, -0.0, -0.0, -0.0, -0.0, -0.6, 0.0, 0.63, 1.86, 4.4, 6.64, 8.0, 8.24, 8.14, 5.77, 4.4, 4.74, 5.69, 6.39, 6.39, 6.39, 6.68, 7.41, 7.32, 7.67, 7.28, 7.03, 6.44, 5.82, 5.09, 5.82, 7.03, 8.0, 9.49, 10.52, 10.75, 9.11, 6.79, 3.95, 3.07, 3.32, 2.0, -0.0, -1.34, -2.6, -3.51, -3.32, -3.74, -2.8, -1.49, 0.0, 0.8, 1.26, 3.74, 7.35, 9.6, 9.3, 9.3, 9.3, 9.92, 9.9, 8.3, 6.64, 1.16, 0.59, -0.0, -0.0, -0.0, -0.0, -0.61, -1.2, -0.65, -0.0, -0.0, -0.0, -0.0, -0.0, -0.0, -0.0, -0.89, -1.34, -1.34, -1.6, -0.8, -0.0, 0.71, 1.49, 1.88, 2.5, 2.5, 2.21, 1.88, 1.16, 0.61, 0.54, 0.6, -0.0, -0.45, -0.32, -0.0, -0.0, -0.0, -0.0, -0.63, 0.0, 1.24, 2.79, 4.65, 6.7, 7.32, 7.03, 4.41, 3.32, 4.43, 5.37, 6.06, 6.7, 6.01, 6.39, 7.06, 7.69, 8.05, 8.05, 8.0, 7.42, 6.44, 5.43, 4.74, 5.43, 7.07, 8.05, 9.49, 10.95, 10.95, 9.33, 6.98, 4.87, 3.51, 4.87, 4.41, -0.0, -1.34, -2.6, -3.51, -3.32, -3.74, -2.8, -1.49, 0.0, 0.8, 1.26, 3.74, 7.35, 9.6, 9.3, 9.3, 9.3, 9.92, 9.9, 8.3, 6.64, 1.16, 0.61, -0.0, -0.0, -0.0, -0.0, -0.53, -0.65, -0.54, -0.0, -0.0, -0.0, -0.0, -0.0, -0.0, -0.0, 0.45, -0.89, -1.34, -1.6, -1.7, -1.2, -0.0, 0.8, 1.49, 1.88, 2.21, 2.5, 1.9, 0.54, -0.0, 0.61, 1.2, 1.58, 1.7, 1.34, 0.89, 0.45, -0.0, -0.0, 0.0, 0.53, 2.4, 4.56, 4.94, 5.69, 5.05, 3.58, 3.07, 4.46, 5.09, 5.72, 6.44, 6.08, 5.38, 6.44, 7.07, 7.67, 8.24, 8.14, 7.6, 6.07, 4.74, 4.74, 4.74, 5.37, 7.06, 8.3, 9.27, 10.68, 11.37, 10.32, 8.36, 5.81, 3.58, 5.36, 6.71, 1.79, -1.7, -3.07, -3.51, -3.32, -3.45, -3.84, -2.53, -0.76, 0.85, 1.58, 4.84, 8.67, 10.9, 10.55, 9.56, 9.23, 8.68, 7.6, 6.79, 5.59, 0.65, -0.0, -0.0, -0.0, -0.0, -0.0, -0.0, -0.54, -0.71, -0.0, -0.0, -0.0, -0.0, -0.0, -0.95, 0.89, 0.45, 0.0, -0.89, -1.79, -1.7, -1.79, -1.2, -0.0, 0.57, 1.74, 2.53, 2.5, 2.15, 0.99, -0.0, -0.0, -0.0, 1.49, 3.2, 3.51, 3.13, 2.24, 1.7, 1.26, 1.88, 2.2, 3.11, 3.72, 3.48, 3.32, 3.51, 4.09, 5.09, 5.46, 5.31, 5.43, 5.43, 5.09, 5.46, 6.08, 7.03, 8.0, 8.14, 8.4, 7.35, 5.09, 3.72, 3.11, 3.79, 5.3, 7.02, 7.96, 9.56, 10.73, 11.88, 11.66, 9.36, 5.81, 3.32, 3.32, 5.16, 3.07, -1.26, -3.74, -3.82, -2.91, -2.86, -4.84, -4.46, -1.86, 0.0, 2.41, 7.06, 10.91, 11.9, 10.9, 9.27, 6.44, 3.13, 3.58, 5.36, 6.21, 0.54, -0.0, -0.0, -0.0, -0.0, -0.0, -0.0, -0.54, -0.57, -0.0, -0.0, -0.0, -0.0, -0.0, -0.0, 0.89, 0.0, 0.0, 0.45, -0.89, -1.34, -0.95, -0.63, -0.0, -0.0, 0.71, 2.21, 2.6, 2.23, 1.86, 0.57, -0.57, -0.6, 0.95, 3.04, 4.02, 4.02, 4.02, 3.82, 2.53, 2.53, 2.86, 3.32, 3.51, 3.58, 4.24, 5.09, 5.46, 5.46, 5.82, 4.84, 4.84, 4.09, 4.46, 5.09, 6.64, 7.2, 7.89, 8.82, 8.4, 6.28, 3.07, 2.29, 2.35, 3.91, 5.21, 6.32, 6.95, 8.65, 10.9, 12.94, 13.49, 10.8, 5.81, 2.8, 1.88, 2.53, 2.21, 0.0, -4.09, -4.93, -3.07, -2.86, -5.05, -5.46, -1.6, 1.66, 6.64, 9.56, 11.2, 11.25, 9.27, 3.83, -0.0, 0.54, 3.32, 8.05, 8.19, 0.54, -0.0, -0.0, -0.0, -0.0, -0.0, -0.0, -0.71, -0.57, -0.0, -0.0, -0.0, -0.0, -0.0, 0.89, -0.89, 0.45, 0.45, 0.0, -0.45, -0.89, -0.89, 0.0, -0.0, 0.95, 1.6, 1.86, 2.8, 2.6, 2.54, 1.86, -0.0, -0.0, 0.89, 2.68, 3.58, 4.02, 5.36, 3.97, 1.9, 1.24, 1.7, 3.13, 3.97, 4.93, 5.09, 5.46, 5.46, 5.43, 4.4, 3.83, 3.83, 3.83, 3.83, 5.05, 6.94, 7.71, 7.71, 9.11, 9.11, 4.4, 0.79, 1.63, 2.4, 3.91, 5.49, 6.32, 6.32, 7.68, 10.28, 12.7, 13.75, 13.07, 10.32, 4.47, 1.58, 0.53, 0.53, 0.0, -2.86, -4.46, -2.98, -3.07, -4.43, -4.16, 0.0, 5.41, 9.4, 11.14, 10.12, 9.17, 4.74, -0.0, -1.33, 0.57, 4.47, 9.33, 10.01, -0.0, -0.0, -0.0, -0.0, -0.0, -0.0, -0.0, -0.57, -0.57, -0.0, -0.0, 0.95, 0.89, 0.45, 1.34, -0.89, -0.89, 0.0, 0.0, 0.0, -0.32, -0.4, 0.0, 0.0, 1.2, 1.79, 1.79, 2.68, 2.24, 1.7, 1.58, 0.99, 0.6, 1.34, 2.63, 3.09, 3.53, 5.36, 3.58, 0.45, -0.63, 0.0, 0.89, 2.6, 3.2, 4.46, 5.77, 6.08, 4.81, 5.75, 4.98, 3.07, 4.0, 4.24, 4.73, 5.77, 6.66, 6.66, 8.46, 7.56, 2.21, -0.0, 0.72, 2.35, 3.0, 5.3, 6.01, 6.08, 7.03, 10.01, 11.95, 12.58, 12.49, 13.21, 10.16, 3.13, 0.6, 0.0, 0.54, 0.7, -2.29, -1.49, -1.55, -1.55, -0.77, 2.06, 6.79, 9.49, 10.04, 8.76, 4.94, 0.45, -1.33, -1.4, 0.89, 5.34, 9.6, 9.84, -0.0, -0.0, -0.0, -0.0, -0.0, -0.0, -0.0, -0.57, -0.8, -0.0, -0.0, 0.95, 1.34, 0.45, 0.89, -0.89, 0.45, 0.89, 0.89, 0.89, 0.45, 0.45, 0.63, 0.57, 0.71, 1.58, 1.58, 1.26, 0.89, 0.45, 1.2, 1.6, 2.24, 2.68, 3.53, 3.39, 3.32, 3.97, 3.58, 0.89, -0.89, -1.34, -0.89, 0.0, 0.95, 3.79, 4.01, 6.01, 6.06, 5.37, 2.5, 3.32, 4.24, 4.73, 4.92, 4.92, 4.92, 5.81, 7.15, 3.13, 0.65, -0.0, -0.0, 2.4, 3.07, 4.46, 6.64, 6.79, 6.66, 9.36, 11.52, 12.05, 12.52, 12.52, 10.73, 4.92, 2.24, 1.34, 2.8, 4.43, 2.54, 0.0, 0.0, 0.72, 2.02, 4.17, 7.03, 8.84, 8.66, 6.24, 0.6, -1.24, -1.4, -0.0, 2.24, 6.94, 9.65, 9.27, -0.0, -0.0, -0.0, -0.0, -0.0, -0.0, -0.0, -0.57, -0.8, -0.0, -0.0, 0.6, 1.79, 1.34, 0.45, 0.45, 0.0, 0.0, 0.45, 0.0, -0.0, -0.0, 0.89, 0.95, 0.57, 1.58, 0.8, 0.0, 0.0, 0.89, 2.12, 2.12, 2.6, 3.04, 3.09, 3.53, 3.2, 3.2, 3.04, 0.45, -1.2, -1.7, -1.7, -1.34, 0.45, 0.85, 2.4, 5.06, 6.32, 6.06, 6.18, 3.45, 4.24, 4.87, 4.92, 4.41, 4.73, 6.07, 4.41, 1.86, 0.76, 0.79, 0.76, 1.4, 3.2, 4.8, 7.21, 7.56, 6.66, 8.46, 10.73, 12.05, 12.94, 11.54, 8.46, 4.87, 3.53, 5.77, 9.26, 8.25, 4.81, 0.67, 0.71, 2.06, 3.61, 4.32, 6.21, 7.63, 6.87, 2.15, -0.0, -0.57, -0.0, 0.45, 2.5, 8.05, 9.3, 8.68, -0.0, -0.0, -0.0, -0.0, -0.0, -0.0, -0.0, -0.8, -0.6, -0.95, -0.0, 0.95, 1.2, 1.2, 1.34, 0.0, 0.0, 0.0, 0.0, 0.0, -0.95, 0.45, 0.45, 0.63, 0.0, 0.0, 0.0, 0.0, 0.0, 1.58, 2.5, 1.86, 1.2, 1.34, 1.7, 3.04, 3.51, 3.32, 1.6, 0.0, -1.24, -1.86, -1.26, -1.2, -0.45, -0.0, 0.99, 2.5, 4.46, 5.3, 5.59, 5.3, 5.43, 5.34, 4.41, 4.02, 3.53, 2.86, 2.12, 0.65, 0.72, 0.74, 2.26, 2.41, 3.22, 4.4, 6.79, 7.48, 6.11, 7.03, 9.33, 11.75, 12.66, 10.98, 8.24, 5.6, 5.09, 7.67, 10.38, 12.01, 8.67, 3.48, 1.3, 2.06, 2.82, 3.33, 5.04, 5.52, 4.02, 1.24, 0.0, 0.45, 0.6, 1.2, 4.01, 8.32, 9.3, 6.08, -0.0, 0.71, 0.57, -0.0, -0.0, -0.0, -0.0, -0.6, -0.6, -0.63, -0.0, -0.0, 0.95, 1.6, 2.24, 1.79, 2.0, 1.49, 1.33, 1.13, 0.0, 0.0, 0.63, 0.63, 0.0, 0.45, 0.0, 0.0, 0.0, 1.58, 1.86, 1.34, 0.0, 0.45, 0.4, 2.54, 3.07, 2.24, 0.63, 0.0, 0.0, 0.0, 0.0, 0.89, -0.0, -0.0, 0.65, 1.16, 1.84, 2.29, 3.8, 5.52, 6.79, 6.42, 5.94, 5.3, 4.43, 1.79, -0.89, -0.66, -0.0, 1.52, 2.35, 2.29, 3.2, 4.71, 7.02, 7.07, 4.92, 4.09, 6.7, 9.34, 10.18, 8.76, 7.2, 5.95, 5.37, 5.94, 8.3, 10.8, 8.06, 2.91, 1.24, 2.15, 2.15, 2.15, 2.73, 2.73, 2.15, 1.26, 1.24, 1.2, 1.4, 1.49, 4.56, 8.27, 6.68, 0.6, -0.0, 0.71, 0.71, 0.57, -0.0, -0.0, -0.0, -0.0, -0.0, -0.63, 0.89, 0.45, 0.89, 1.34, 1.79, 2.24, 2.68, 3.07, 3.39, 3.87, 4.02, 3.98, 3.54, 4.02, 3.39, 2.8, 2.68, 1.2, 0.63, 0.45, 0.89, 0.63, -0.0, -0.45, 0.0, 0.45, 0.45, 0.45, -0.63, 0.0, 0.0, 0.45, 0.95, 1.58, -0.0, -0.0, -0.0, -0.0, 0.88, 1.03, 1.45, 3.06, 4.5, 5.4, 5.4, 6.21, 7.79, 5.3, -0.0, -3.07, -0.74, 1.6, 2.4, 0.74, 0.72, 3.82, 6.31, 7.54, 6.95, 4.4, 4.47, 6.26, 6.67, 4.73, 4.09, 4.46, 3.79, 2.98, 5.38, 5.31, 2.68, 1.2, 1.2, 1.86, 2.4, 2.4, 2.5, 1.9, 1.86, 1.58, 1.4, 1.33, 1.49, 2.4, 5.49, 7.64, 1.88, -1.34, -0.0, 0.57, 0.71, 0.71, 0.57, -0.0, -0.0, -0.0, -0.0, -0.0, 0.45, 0.45, 0.45, 0.89, 1.79, 2.24, 3.13, 3.58, 4.02, 4.47, 5.34, 6.16, 6.47, 6.47, 6.04, 5.57, 4.77, 3.7, 2.5, 1.26, 0.89, 0.89, -0.32, 0.45, -0.0, -1.2, -1.2, -1.34, -1.34, -1.2, -0.45, -0.0, -0.0, -0.0, -0.85, -0.76, -0.76, -0.76, -0.0, -0.0, -0.0, 0.59, 1.27, 1.23, 1.98, 3.0, 5.45, 11.06, 6.4, -1.33, -2.35, 0.81, 0.73, -0.0, -0.73, 0.74, 3.59, 6.28, 7.13, 7.79, 7.73, 8.27, 7.69, 4.0, 2.6, 1.9, 1.58, 1.26, 2.12, 1.79, 1.26, 1.7, 1.7, 0.71, 2.12, 3.04, 2.91, 2.17, 1.7, 1.86, 1.9, 2.07, 1.49, 3.11, 6.53, 6.01, 1.26, -0.89, -0.0, -0.0, 0.57, 1.24, 1.24, 0.57, 0.6, -0.0, -0.0, -0.0, 0.45, 0.45, 0.0, 0.89, 1.34, 2.24, 2.68, 3.58, 4.02, 4.47, 5.36, 6.23, 6.6, 6.6, 6.6, 6.16, 5.7, 4.88, 3.97, 2.63, 1.79, 0.45, 1.34, 0.89, -0.89, -1.6, -1.79, -1.79, -1.34, -0.63, -0.89, -0.89, -0.6, -1.13, -1.27, -1.27, -0.99, -1.26, -0.8, -0.8, -0.0, -0.0, 0.45, 0.0, 0.0, -0.45, -0.0, 9.2, 13.2, 1.55, -3.15, -0.0, -0.0, -1.09, -1.47, -1.47, -0.0, 2.21, 5.2, 7.24, 8.84, 10.12, 9.23, 7.06, 3.07, 0.89, -0.0, 1.6, 2.17, 2.6, 2.24, 2.68, 2.4, 1.49, 1.0, 2.5, 2.8, 2.24, 1.79, 2.0, 2.5, 1.88, 2.98, 4.56, 6.64, 5.43, 1.26, 0.0, -0.0, -0.0, 0.57, 1.24, 1.24, 1.24, 0.99, 0.6, 0.6, 0.63, -0.0, 0.45, 0.45, 0.89, 1.34, 1.79, 2.68, 3.13, 3.58, 4.02, 4.92, 5.34, 6.23, 6.16, 6.16, 6.16, 5.78, 5.36, 4.47, 3.58, 3.13, 2.12, 1.79, 1.34, 1.34, 1.34, 1.34, 0.45, 0.89, 0.0, 0.45, 0.45, -0.0, -1.2, -1.6, -1.6, -1.4, -1.9, -1.9, -0.89, 0.45, 0.45, 0.0, 0.0, 0.45, -1.6, -0.71, 5.44, 11.99, 5.44, -0.82, -2.16, -2.16, -2.0, -2.2, -1.99, -1.08, -0.0, 3.22, 5.72, 6.88, 9.3, 9.74, 7.71, 3.98, 2.21, 1.84, 3.49, 3.32, 3.13, 2.8, 2.86, 2.53, 1.88, 0.59, 1.49, 1.9, 1.49, 1.6, 2.6, 2.86, 2.84, 3.43, 4.36, 6.06, 2.8, 1.86, 1.86, -0.0, -0.0, 0.6, 0.57, 1.24, 1.9, 1.24, 1.24, 1.26, 0.6, 0.63, -0.0, 0.45, 0.89, 1.34, 1.79, 2.24, 2.68, 3.13, 3.58, 4.47, 4.89, 5.34, 5.7, 6.16, 6.6, 6.23, 5.81, 4.92, 4.47, 3.98, 3.53, 2.17, 1.79, 1.34, 0.0, 0.45, 0.45, 0.89, 0.89, 0.45, 0.89, 1.34, -0.0, -1.6, -1.6, -1.13, -1.4, -0.0, -0.0, 0.89, 0.45, 0.45, 0.45, 0.45, 0.0, 0.0, 2.53, 4.02, 2.84, -0.0, -1.6, -2.84, -2.53, -1.6, -2.12, -1.86, -0.65, 1.98, 5.72, 7.67, 9.28, 9.83, 7.45, 3.58, 1.8, 4.46, 7.02, 6.64, 3.82, 3.13, 1.9, 1.6, 1.4, 0.7, 0.0, 0.79, 0.65, 0.76, 2.3, 3.79, 2.79, 3.43, 5.72, 6.35, 4.12, 2.53, 2.53, 0.95, 0.6, 0.6, 0.8, 1.24, 1.9, 1.9, 1.9, 1.24, 1.26, 0.8, -0.0, -0.0, 0.89, 1.34, 1.79, 2.24, 2.68, 3.13, 3.58, 4.02, 4.47, 4.89, 5.24, 6.16, 6.6, 6.68, 5.81, 4.92, 4.43, 3.98, 3.97, 2.91, 2.8, 0.95, 0.89, 0.45, 0.89, 0.45, 1.79, 0.0, 0.0, 0.89, -0.0, -1.4, -1.6, -1.6, -0.0, -0.0, -0.0, -0.0, -0.0, -0.0, 1.26, 1.58, 1.58, 1.79, 1.79, -0.0, -0.0, 1.9, -0.0, -1.4, -1.4, -1.9, -0.63, -1.34, -1.6, 0.71, 7.81, 12.02, 10.52, 8.55, 3.6, 0.57, 1.45, 5.41, 9.17, 9.92, 8.67, 7.6, 4.41, 2.15, 0.65, 0.0, 0.0, 0.0, 0.0, 1.47, 3.11, 3.43, 2.21, 2.15, 5.0, 7.02, 5.37, 3.43, 3.43, 1.2, 0.6, 0.8, 0.8, 1.26, 1.58, 1.9, 1.9, 1.9, 1.24, 1.24, 0.8, 0.6, 1.2, 1.79, 2.24, 2.24, 2.68, 2.68, 3.13, 3.58, 4.02, 4.02, 4.88, 5.67, 6.14, 5.78, 4.92, 4.02, 3.58, 3.07, 3.07, 3.32, 2.8, 2.23, 1.0, 0.8, 0.0, 1.26, 0.8, 0.6, 0.0, 0.45, -0.0, -0.0, -0.0, -0.0, -0.0, -0.0, -0.0, -0.0, -0.0, -0.0, 1.9, 1.9, 1.9, -0.0, -0.0, -0.0, 1.58, 1.9, 1.2, -0.0, -1.41, -2.73, -0.57, -0.6, -0.95, 0.65, 8.22, 13.7, 11.98, 6.22, 3.07, 1.16, 1.23, 5.21, 9.92, 12.51, 11.83, 10.8, 10.95, 6.26, 0.0, 0.0, 0.0, 0.0, 0.0, 0.78, 2.35, 2.53, 2.21, 2.73, 4.87, 6.24, 5.3, 4.29, 4.29, 1.6, 1.26, 1.26, 1.26, 1.26, 1.58, 1.58, 1.9, 1.9, 1.9, 1.24, 1.24, 1.26, 1.6, 1.79, 2.24, 2.24, 2.24, 2.68, 3.13, 3.58, 3.07, 2.68, 3.58, 4.47, 5.36, 4.02, 3.58, 3.13, 2.24, 2.24, 2.6, 2.6, 2.91, 2.91, 2.5, 2.5, 1.88, 1.24, 0.71, 1.24, 0.6, 0.45, -0.0, -0.0, -0.0, -0.0, -0.0, -0.0, -0.0, -0.0, -0.0, -0.0, -0.0, -0.0, -0.0, -0.0, 1.9, 2.21, 2.8, 2.8, 1.9, -0.0, -1.24, -1.6, -1.8, -1.24, 0.0, 2.2, 7.64, 11.57, 13.21, 14.49, 12.14, 7.71, 3.53, 4.02, 8.49, 11.98, 12.77, 11.98, 10.26, 2.8, -0.65, 0.0, 0.0, 0.0, 0.59, 0.74, 0.67, 0.76, 3.11, 4.56, 4.8, 4.6, 4.83, 3.79, 3.79, 1.7, 1.86, 1.86, 1.86, 1.86, 1.86, 1.86, 1.9, 1.9, 1.9, 1.58, 1.86, 1.26, 1.7, 1.79, 2.24, 2.24, 2.24, 2.68, 3.13, 3.13, 2.17, 2.12, 2.54, 3.95, 4.47, 4.47, 3.58, 3.13, 2.68, 2.24, 2.24, 2.6, 2.6, 2.91, 2.91, 3.07, 3.07, 3.07, 3.07, 3.07, 3.07, 3.13, 2.91, 2.5, 2.8, 1.9, 1.9, 1.9, -0.0, -0.0, -0.0, -0.0, -0.0, -0.0, 1.0, 1.4, 1.49, 2.54, 3.58, 3.13, 1.58, -1.4, -2.23, -1.8, -2.41, -2.53, -0.0, 2.68, 6.26, 9.54, 13.23, 17.22, 17.91, 15.2, 10.01, 7.31, 7.9, 11.87, 12.42, 12.49, 10.73, 2.63, -1.24, -0.54, 0.54, 0.57, 1.26, 0.59, 0.0, 0.0, 3.21, 4.71, 3.88, 3.7, 3.8, 3.79, 3.79, 2.12, 2.12, 1.86, 1.86, 1.86, 1.86, 1.86, 2.23, 2.23, 1.86, 1.86, 1.86, 2.12, 2.12, 2.24, 2.24, 2.24, 2.24, 2.68, 3.58, 3.13, 2.24, 2.24, 2.6, 3.53, 4.44, 4.92, 4.92, 4.47, 3.58, 3.58, 3.13, 3.13, 3.07, 3.07, 3.32, 3.39, 3.82, 3.82, 3.87, 3.98, 4.02, 4.02, 4.43, 3.82, 3.82, 2.8, 2.21, 1.9, -0.0, -0.0, -0.0, -0.0, -0.0, -0.0, 0.85, 1.8, 1.49, 2.8, 2.68, 1.34, -1.9, -2.53, -2.53, -1.9, -1.9, -1.58, -0.0, 2.53, 4.74, 6.95, 10.55, 15.49, 17.15, 15.12, 11.9, 8.35, 9.39, 9.8, 10.29, 11.45, 11.52, 4.02, 0.0, -1.2, 0.0, 0.45, 0.63, 1.9, 1.33, 1.44, 3.11, 3.15, 1.98, 1.93, 2.66, 2.04, 2.04, 2.17, 2.17, 2.4, 2.4, 2.4, 2.15, 2.4, 2.4, 2.4, 2.4, 2.0, 2.12, 2.17, 2.17, 2.24, 2.24, 2.24, 2.68, 2.68, 3.13, 3.58, 3.13, 3.13, 3.13, 3.58, 4.02, 4.92, 4.92, 4.92, 4.92, 4.47, 4.02, 4.02, 3.58, 3.53, 3.53, 3.98, 3.98, 4.43, 4.43, 4.44, 4.47, 4.47, 4.47, 3.98, 3.53, 4.02, 3.13, 2.68, 1.58, -0.0, -0.0, -0.0, -0.0, -0.0, -0.0, 0.65, 0.76, 1.2, 1.34, -1.34, -1.86, -1.86, -1.26, -1.49, -0.85, -1.0, -0.0, -0.0, -0.0, 1.14, 7.96, 13.51, 14.17, 4.56, 5.52, 7.11, 7.03, 7.76, 7.85, 9.27, 10.27, 7.92, 2.24, 0.0, 0.0, 0.0, 1.24, 3.43, 4.11, 3.26, 1.35, 0.65, 0.57, 0.65, 1.13, 1.33, 1.33, 2.24, 2.24, 2.17, 2.4, 2.15, 2.15, 2.15, 2.4, 2.4, 2.4, 2.4, 2.6, 2.6, 2.6, 2.6, 2.68, 2.68, 2.68, 2.68, 3.13, 3.58, 3.58, 3.58, 3.58, 4.02, 4.02, 4.47, 4.92, 4.92, 4.92, 4.92, 4.47, 4.47, 4.47, 4.47, 4.47, 4.47, 4.44, 4.44, 4.44, 4.47, 4.47, 4.47, 4.02, 3.98, 3.97, 4.02, 2.68, 2.24, 2.24, -0.0, -0.0, -0.0, -0.0, -0.0, -0.0, -0.0, -0.0, -0.0, -1.2, -2.17, -2.12, -1.26, -0.8, -0.71, -0.79, -0.0, -0.0, -0.0, -0.71, -1.49, 0.85, 13.53, 7.31, 0.0, 0.0, 2.87, 5.02, 6.34, 6.42, 7.11, 7.9, 7.67, 4.93, 2.5, 1.24, 1.9, 2.79, 4.01, 2.21, 2.53, 1.2, 0.45, 0.45, 0.0, 1.2, 1.33, 1.33, 2.24, 2.24, 2.6, 2.4, 2.15, 2.5, 2.5, 2.5, 2.4, 2.4, 2.4, 2.4, 2.6, 2.6, 2.6, 2.6, 2.68, 2.68, 2.68, 3.13, 3.13, 3.58, 3.58, 4.02, 4.02, 4.02, 4.47, 4.47, 4.92, 4.92, 4.92, 4.92, 4.92, 4.47, 4.47, 4.47, 4.47, 4.92, 4.92, 4.92, 4.92, 4.47, 4.47, 4.02, 4.02, 4.02, 4.47, 3.13, 2.68, 2.68, 2.68, 1.58, -0.0, -0.0, -0.0, -0.0, -0.0, -0.0, -0.0, -0.0, -0.63, -1.34, -0.89, -0.0, -0.65, -0.0, -0.0, 1.19, 0.54, -0.0, -1.6, 9.75, 15.18, 12.94, 4.34, 0.0, 0.0, 2.23, 4.1, 4.79, 5.02, 5.47, 6.23, 6.35, 4.65, 2.88, 3.11, 2.2, 0.57, -0.45, 0.89, 0.63, 0.8, 0.89, 1.2, 1.2, 1.16, 1.16, 2.24, 2.24, 2.17, 2.4, 2.4, 2.15, 2.5, 2.5, 2.8, 2.4, 2.4, 2.4, 2.4, 2.63, 2.63, 2.63, 2.63, 2.68, 3.13, 3.13, 3.13, 3.58, 3.58, 3.58, 4.02, 4.02, 4.47, 4.47, 4.47, 4.92, 4.92, 4.92, 4.92, 4.92, 4.92, 4.92, 4.92, 4.92, 4.92, 4.92, 4.92, 4.92, 4.47, 4.02, 4.02, 4.02, 4.02, 3.58, 3.09, 3.09, 3.07, 3.2, 1.9, -0.0, -0.0, -0.0, -0.0, -0.0, 0.45, 0.89, 1.34, 0.45, 0.0, -0.0, -0.0, -0.0, -0.0, -0.0, -0.0, 0.0, 1.55, 7.06, 14.14, 15.12, 15.78, 11.23, 3.58, 1.16, 3.17, 3.02, 4.17, 4.77, 6.29, 6.17, 4.46, 2.8, 1.41, 0.0, -1.34, -1.79, -1.34, 0.0, 1.34, 1.7, 2.0, 1.9, 1.24, 1.24, 2.24, 2.24, 2.17, 2.4, 2.15, 2.15, 2.15, 2.5, 2.8, 2.8, 2.4, 2.4, 2.91, 3.07, 3.07, 3.07, 3.07, 3.07, 3.13, 3.13, 3.13, 3.58, 3.58, 3.58, 4.02, 4.02, 4.02, 4.02, 4.47, 4.47, 4.92, 4.92, 4.92, 4.92, 4.92, 4.92, 4.92, 4.92, 4.92, 4.92, 4.92, 4.47, 4.47, 4.02, 4.02, 4.02, 4.02, 4.02, 4.02, 4.02, 3.98, 3.53, 3.58, 1.9, 1.58, -0.0, -0.0, -0.0, 0.89, 0.45, 1.79, 2.24, 1.6, -0.0, -0.0, -0.0, -0.0, -0.0, -0.57, 0.0, 0.7, 5.59, 10.6, 14.73, 16.09, 16.44, 15.82, 9.81, 3.11, 2.31, 3.07, 4.77, 5.68, 4.96, 2.6, 1.33, 0.0, -1.34, -1.34, -1.34, -1.2, 0.0, 1.26, 1.86, 2.4, 2.4, 1.86, 1.86, 2.24, 2.24, 2.12, 2.23, 1.9, 1.9, 2.15, 2.5, 2.8, 2.8, 2.8, 2.91, 2.91, 2.91, 3.07, 3.07, 3.07, 3.07, 3.07, 3.13, 3.58, 3.58, 3.58, 3.58, 3.58, 4.02, 4.02, 4.02, 4.02, 4.47, 4.47, 4.47, 4.92, 4.92, 4.92, 4.92, 4.92, 4.92, 4.92, 4.92, 4.47, 4.47, 4.47, 4.47, 4.02, 4.02, 4.02, 4.02, 4.02, 4.02, 4.02, 3.58, 3.13, 2.6, 2.0, 1.26, -0.0, -0.0, -0.0, 0.0, 0.45, 1.79, 1.86, 0.65, -0.0, -0.0, -0.0, -0.0, -0.63, 0.0, 1.4, 3.48, 7.47, 10.26, 11.66, 13.35, 18.16, 15.73, 5.09, 0.73, 2.31, 3.73, 4.66, 4.0, 2.6, 0.66, -0.57, -1.34, -0.45, -0.45, -0.6, 0.0, 0.71, 1.2, 1.9, 2.15, 2.15, 2.15, 1.7, 1.7, 1.86, 1.9, 1.9, 2.15, 2.15, 2.15, 2.15, 2.4, 2.8, 2.91, 2.91, 2.91, 2.91, 3.07, 3.07, 3.07, 3.09, 3.53, 3.58, 3.58, 3.58, 3.58, 3.58, 4.02, 4.02, 4.02, 4.02, 4.02, 4.02, 4.02, 4.47, 4.92, 4.92, 4.92, 4.92, 4.92, 4.92, 4.92, 4.47, 4.47, 4.02, 4.02, 4.02, 4.02, 4.02, 4.02, 4.02, 4.02, 3.58, 3.58, 3.13, 3.13, 2.68, 2.24, 1.79, -0.0, -1.26, -0.89, -0.45, 0.0, 0.6, 0.71, 0.76, 1.08, -0.0, -0.0, 0.45, 0.0, 1.24, 3.45, 5.09, 5.05, 6.22, 11.62, 15.65, 15.12, 4.02, 0.0, 0.77, 4.1, 4.65, 3.44, 2.12, 0.0, -1.58, -1.2, 0.0, 0.0, 0.0, 0.0, 0.71, 0.65, 1.2, 1.88, 2.21, 2.21, 1.7, 1.7, 1.86, 1.9, 1.9, 2.15, 2.15, 2.15, 2.15, 2.4, 2.4, 2.91, 2.91, 2.91, 2.91, 2.91, 3.07, 3.09, 3.53, 3.53, 3.58, 3.58, 3.58, 3.58, 3.58, 3.58, 3.58, 3.58, 3.58, 4.02, 4.02, 4.02, 4.47, 4.47, 4.92, 4.92, 4.92, 4.92, 4.92, 4.92, 4.47, 4.47, 4.02, 4.02, 4.02, 3.53, 4.02, 4.02, 3.58, 4.02, 3.58, 3.13, 3.13, 2.68, 2.68, 2.24, 2.24, 1.34, -1.26, -1.2, -1.34, -0.45, 0.0, -0.0, -0.0, -0.0, 0.53, -0.0, -0.45, 0.0, 1.26, 4.66, 6.79, 5.72, 7.52, 11.52, 13.43, 12.87, 6.71, 1.24, 0.0, 3.47, 5.32, 4.8, 1.94, 0.0, -1.2, -0.6, 0.0, 0.57, 0.0, 0.0, 0.0, 0.0, 0.65, 1.2, 2.21, 2.21, 1.86, 1.86, 1.86, 1.9, 2.15, 2.15, 2.15, 2.15, 2.4, 2.4, 2.4, 2.91, 2.91, 2.91, 2.91, 2.91, 3.53, 3.53, 3.53, 3.53, 3.53, 3.58, 3.58, 3.58, 3.58, 3.58, 3.58, 3.58, 3.58, 4.02, 4.02, 4.02, 4.02, 4.47, 4.44, 4.89, 4.92, 4.92, 4.92, 4.92, 4.47, 4.47, 4.02, 3.58, 3.13, 3.58, 4.02, 3.07, 3.07, 3.07, 3.07, 2.63, 2.68, 2.68, 2.24, 2.24, 2.24, 0.89, 0.45, -0.89, -1.34, 0.45, 0.0, -0.0, -0.0, -0.0, -0.0, 0.8, 0.89, 0.0, 1.24, 4.4, 8.91, 10.32, 10.55, 12.09, 12.45, 11.54, 9.08, 3.39, 1.16, 2.9, 4.72, 5.26, 4.05, 1.2, 0.6, 0.6, 0.57, 0.6, 0.0, 0.0, 0.63, 0.0, 0.57, 1.0, 1.9, 1.9, 1.86, 1.86, 2.23, 2.15, 2.15, 2.15, 2.15, 2.4, 2.4, 2.4, 2.4, 2.4, 2.91, 2.91, 2.91, 2.91, 3.39, 3.53, 3.53, 3.53, 3.53, 3.53, 3.53, 3.58, 3.58, 3.58, 3.58, 3.58, 3.58, 3.58, 3.58, 3.58, 4.02, 4.02, 4.47, 4.92, 4.92, 4.92, 4.92, 4.92, 4.47, 4.02, 4.02, 3.58, 3.13, 3.95, 4.02, 3.13, 2.68, 2.68, 3.07, 2.6, 2.6, 2.17, 2.17, 2.17, 2.12, 1.79, 0.89, 0.45, -0.45, 0.0, 0.45, -0.0, -0.0, -0.0, -0.6, 0.89, 2.68, 2.8, 1.4, 1.2, 5.77, 12.49, 15.12, 14.64, 13.46, 11.52, 9.3, 6.94, 2.53, 1.23, 3.52, 4.66, 4.69, 4.12, 4.07, 2.15, 2.17, 1.7, 0.45, -0.0, 0.6, 2.0, 1.7, 2.17, 2.63, 2.63, 2.4, 2.4, 2.4, 2.15, 2.15, 2.15, 2.15, 2.4, 2.4, 2.4, 2.4, 2.4, 2.4, 2.91, 2.91, 2.91, 3.39, 3.53, 3.53, 3.53, 3.53, 3.53, 3.53, 3.53, 3.58, 3.58, 3.58, 3.58, 4.02, 3.58, 3.58, 3.58, 3.58, 4.02, 4.02, 4.47, 4.92, 4.92, 4.92, 4.92, 4.47, 4.02, 4.02, 4.02, 3.58, 3.98, 3.98, 3.58, 3.13, 3.13, 3.07, 3.07, 2.6, 2.17, 2.12, 2.17, 2.17, 2.12, 1.6, 0.95, 0.0, 0.0, 0.89, -0.0, -0.0, -0.0, -0.0, 0.0, 2.8, 4.98, 1.24, 0.0, 0.8, 9.83, 18.31, 19.42, 12.52, 6.88, 6.95, 9.14, 6.25, 2.21, 1.61, 4.12, 5.06, 5.06, 5.29, 5.47, 3.32, 2.68, 2.24, 0.95, 0.95, 1.86, 2.63, 3.13, 3.58, 3.58, 2.91, 2.91, 2.91, 2.8, 2.4, 2.4, 2.4, 2.4, 2.4, 2.0, 2.0, 2.4, 2.4, 2.4, 2.91, 2.91, 3.39, 3.53, 3.53, 3.53, 3.53, 3.53, 3.53, 3.53, 3.53, 3.58, 3.58, 3.58, 3.58, 4.02, 3.13, 3.58, 3.58, 4.02, 4.02, 4.47, 4.47, 4.92, 4.92, 4.92, 4.47, 4.02, 4.02, 4.02, 4.02, 4.02, 4.02, 4.02, 4.02, 3.58, 3.53, 3.07, 3.07, 2.6, 2.17, 2.12, 2.17, 2.12, 2.12, 1.7, 1.26, 0.95, 1.79, 0.89, -0.0, -0.99, -0.6, 0.45, 1.9, 2.4, 0.89, -0.89, 0.0, 5.43, 17.59, 23.19, 9.33, -0.53, 0.61, 6.25, 8.48, 4.88, 3.58, 3.53, 6.04, 6.3, 6.3, 6.3, 3.53, 3.58, 3.07, 1.86, 1.26, 2.0, 3.07, 3.51, 3.97, 3.97, 3.39, 3.39, 2.91, 2.91, 2.8, 2.4, 2.4, 2.4, 2.4, 2.0, 2.0, 2.17, 2.6, 2.4, 2.91, 2.91, 3.07, 3.53, 3.53, 3.53, 3.53, 3.53, 3.53, 3.53, 3.53, 3.53, 3.58, 3.58, 3.58, 3.58, 3.53, 3.58, 3.58, 4.02, 4.02, 4.47, 4.47, 4.47, 4.92, 4.92, 4.47, 4.47, 4.02, 4.02, 4.02, 4.02, 4.02, 4.02, 4.02, 3.98, 3.98, 3.53, 3.07, 3.07, 2.4, 2.6, 2.17, 2.6, 2.6, 2.6, 1.9, 1.58, 1.79, -0.0, -0.0, -1.74, -1.26, -0.63, 0.0, 0.0, 0.0, 0.0, 1.49, 6.42, 14.64, 21.67, 13.86, 1.2, 0.45, 3.39, 7.33, 7.48, 7.12, 6.71, 7.15, 8.94, 8.92, 8.47, 5.36, 4.43, 3.82, 3.74, 2.8, 2.6, 3.13, 3.97, 4.43, 4.43, 3.82, 3.82, 3.39, 3.32, 2.91, 2.4, 2.4, 2.4, 2.4, 2.17, 2.17, 2.17, 2.17, 2.6, 2.6, 3.07, 3.07, 3.53, 3.53, 3.53, 3.53, 3.53, 3.53, 3.53, 3.53, 3.58, 3.58, 3.58, 3.58, 3.58, 3.58, 3.58, 4.02, 4.02, 4.02, 4.02, 4.47, 4.47, 4.47, 4.47, 4.47, 4.47, 4.02, 4.02, 4.02, 4.02, 4.02, 4.02, 3.98, 3.98, 3.98, 3.53, 3.53, 2.91, 2.91, 2.4, 2.4, 2.4, 2.6, 3.07, 2.4, 2.4, 1.79, -0.0, -1.9, -3.2, -1.6, -1.79, -1.34, -0.89, 0.45, 0.89, 5.4, 9.65, 12.47, 15.93, 17.15, 14.26, 11.66, 9.83, 8.25, 7.73, 6.85, 7.12, 8.49, 10.73, 11.18, 9.39, 8.01, 7.01, 6.11, 5.16, 5.16, 4.41, 3.58, 3.58, 4.92, 4.92, 3.98, 3.98, 3.82, 3.39, 2.91, 2.91, 2.4, 2.4, 2.4, 2.17, 2.17, 2.17, 2.17, 2.6, 2.6, 2.63, 3.07, 3.09, 3.53, 3.53, 3.53, 3.53, 3.53, 3.53, 3.53, 3.58, 3.58, 3.58, 3.58, 3.58, 3.58, 3.58, 4.02, 4.02, 4.02, 4.02, 4.47, 4.47, 4.47, 4.47, 4.47, 4.02, 4.02, 4.02, 4.02, 4.02, 3.98, 3.98, 3.98, 3.98, 3.98, 3.97, 3.53, 3.32, 2.91, 2.8, 2.4, 2.4, 2.8, 2.8, 2.91, 2.4, 1.79, 0.45, -0.95, -2.68, -2.0, -1.34, -1.79, -1.34, -0.45, 0.45, 4.92, 10.25, 12.14, 11.96, 12.87, 16.09, 18.96, 19.22, 14.31, 6.32, 2.53, 3.53, 5.36, 8.05, 9.39, 9.39, 8.94, 8.46, 8.01, 6.66, 6.21, 5.81, 4.92, 4.47, 4.02, 4.02, 3.98, 3.98, 3.98, 3.39, 3.39, 2.91, 2.91, 2.4, 2.6, 2.6, 2.6, 2.17, 2.6, 2.6, 2.6, 2.63, 3.07, 3.07, 3.09, 3.53, 3.53, 3.53, 3.53, 3.53, 3.53, 3.53, 3.53, 3.58, 3.58, 3.58, 3.58, 3.58, 3.58, 4.02, 4.02, 4.02, 4.02, 4.47, 4.47, 4.47, 4.02, 4.02, 3.58, 4.02, 3.58, 4.02, 3.98, 3.98, 3.87, 3.87, 3.82, 3.39, 3.39, 3.32, 2.91, 2.91, 2.8, 2.8, 2.8, 2.8, 2.8, 1.86, 1.79, 0.0, -0.89, -1.79, -1.79, -2.0, -2.0, -0.89, -0.89, -0.0, 2.23, 11.12, 12.94, 11.66, 10.75, 13.96, 19.42, 21.7, 16.3, 4.93, 0.71, 1.86, 3.53, 6.67, 8.91, 8.91, 8.94, 8.94, 8.49, 7.6, 6.71, 6.71, 5.81, 5.36, 4.87, 4.41, 4.44, 4.44, 3.98, 3.87, 3.39, 2.91, 2.91, 2.91, 2.6, 2.6, 2.6, 2.6, 2.6, 2.6, 2.6, 2.63, 3.07, 3.07, 3.07, 3.09, 3.53, 3.53, 3.53, 3.53, 3.53, 3.53, 3.53, 3.53, 3.58, 3.58, 3.58, 3.58, 3.58, 3.58, 4.02, 4.02, 4.02, 4.02, 4.02, 4.02, 4.02, 4.02, 3.58, 3.58, 3.58, 4.02, 3.98, 3.87, 3.82, 3.39, 3.39, 3.39, 3.39, 3.32, 2.91, 2.91, 2.8, 2.68, 2.5, 2.5, 2.5, 1.86, 0.0, 0.89, 0.0, 1.34, -2.24, -1.79, -1.34, -0.89, -0.89, -0.89, 1.6, 10.7, 16.09, 12.87, 9.6, 12.47, 16.92, 18.99, 15.06, 7.12, 2.4, 0.8, 1.86, 3.82, 6.58, 7.56, 7.6, 7.6, 7.6, 7.6, 7.15, 7.6, 7.15, 6.66, 5.78, 4.87, 4.44, 4.44, 3.98, 3.98, 3.39, 3.39, 2.91, 2.91, 3.07, 2.6, 2.63, 2.6, 2.6, 2.6, 2.63, 2.63, 2.63, 3.07, 3.07, 3.07, 3.09, 3.53, 3.53, 3.53, 3.53, 3.53, 3.53, 3.53, 3.53, 3.58, 3.58, 3.58, 3.58, 3.58, 4.02, 4.02, 4.02, 4.02, 4.02, 4.02, 4.02, 3.58, 3.13, 3.13, 4.02, 4.02, 3.98, 3.39, 3.39, 3.39, 3.39, 3.32, 3.32, 2.91, 2.91, 2.91, 2.5, 2.68, 2.5, 2.5, 2.5, 1.9, 1.26, 0.0, 0.0, 1.34, -1.34, -1.79, -1.34, 0.0, -0.45, -1.2, 0.8, 7.98, 14.58, 14.44, 12.07, 10.8, 13.04, 13.42, 11.45, 8.47, 3.51, 0.63, 0.0, 2.12, 3.53, 4.47, 4.92, 6.26, 6.26, 6.71, 7.15, 8.05, 8.01, 7.12, 6.22, 5.78, 4.44, 4.44, 4.43, 3.87, 3.87, 3.39, 3.39, 2.91, 3.07, 3.07, 3.07, 2.63, 2.63, 2.63, 2.63, 2.63, 2.63, 2.63, 3.07, 3.07, 3.09, 3.09, 3.09, 3.09, 3.09, 3.09, 3.09, 3.09, 3.53, 3.58, 3.58, 3.58, 3.58, 3.58, 3.58, 4.02, 4.02, 4.02, 4.02, 4.02, 4.02, 3.58, 3.53, 3.07, 3.32, 4.38, 3.97, 3.32, 2.91, 3.32, 3.32, 3.32, 2.91, 2.91, 2.68, 2.5, 2.5, 3.07, 2.79, 2.53, 2.53, 2.21, 1.9, 0.0, 1.79, 1.34, -0.89, -1.79, -0.45, 0.45, -0.89, -0.8, 0.71, 2.8, 8.05, 14.53, 17.25, 15.65, 9.08, 4.46, 3.32, 4.02, 3.58, 1.34, 0.45, 1.34, 2.68, 3.58, 4.47, 5.36, 5.81, 6.26, 6.71, 8.01, 8.01, 7.56, 6.66, 6.66, 4.44, 4.44, 4.43, 3.87, 3.87, 3.82, 3.39, 3.39, 3.53, 3.07, 3.07, 3.07, 2.63, 2.63, 2.63, 2.63, 2.63, 2.63, 3.07, 3.07, 3.07, 3.07, 3.07, 3.07, 3.07, 3.07, 3.07, 3.09, 3.09, 3.58, 3.58, 3.58, 3.58, 3.58, 3.58, 4.02, 4.02, 4.02, 4.02, 4.02, 4.02, 3.53, 3.53, 3.53, 3.39, 3.82, 3.53, 3.53, 3.32, 3.32, 3.32, 3.32, 2.91, 2.68, 2.5, 2.5, 2.79, 2.79, 2.79, 2.79, 2.53, 2.21, 1.9, 1.58, 1.79, 1.34, 0.89, 1.79, -0.0, -0.45, -0.63, -0.71, 0.0, 1.88, 2.98, 9.77, 16.47, 20.63, 12.87, 2.17, 0.0, 2.68, 4.02, 3.58, 2.17, 1.7, 2.6, 3.53, 3.98, 5.32, 5.77, 6.21, 6.22, 6.55, 7.11, 6.66, 6.66, 6.66, 4.44, 4.44, 4.34, 4.3, 3.87, 3.87, 3.82, 3.39, 3.39, 3.09, 3.07, 3.07, 3.07, 3.07, 2.63, 2.63, 2.63, 2.63, 3.07, 3.07, 3.07, 3.07, 3.07, 3.07, 3.07, 3.07, 3.07, 3.13, 3.13, 3.13, 3.58, 3.58, 3.58, 3.58, 3.58, 3.58, 4.02, 4.02, 4.02, 3.98, 3.98, 3.97, 3.53, 3.53, 3.39, 3.39, 3.53, 3.53, 3.39, 3.39, 3.39, 3.32, 3.32, 2.68, 2.68, 2.5, 3.14, 3.14, 3.14, 2.79, 2.53, 2.53, 1.88, 1.9, 0.0, 1.79, 1.34, -0.0, -1.26, -0.63, -0.63, -0.54, 0.0, 1.33, 3.72, 6.06, 11.84, 17.36, 18.88, 13.07, 7.6, 7.56, 8.46, 7.04, 4.93, 3.07, 3.07, 3.6, 4.11, 5.44, 5.64, 5.64, 5.64, 6.51, 6.55, 6.55, 6.55, 6.55, 4.44, 4.44, 4.34, 4.34, 4.3, 3.87, 3.87, 3.87, 3.39, 3.53, 3.09, 3.07, 3.07, 3.07, 3.07, 3.07, 3.07, 3.07, 3.07, 3.07, 3.07, 3.07, 3.07, 3.07, 3.07, 3.13, 3.13, 3.13, 3.13, 3.13, 3.13, 3.58, 3.58, 3.58, 3.58, 3.58, 3.58, 4.02, 3.98, 3.98, 3.98, 3.97, 3.53, 3.39, 3.39, 3.39, 3.39, 3.82, 3.82, 3.82, 3.39, 3.32, 3.07, 3.07, 3.07, 2.79, 3.14, 3.14, 3.14, 3.14, 2.53, 2.53, 2.21, 1.49, 1.9, 1.79, 1.34, -0.0, -1.26, -0.89, -0.63, 0.0, 0.0, 1.49, 3.07, 3.49, 6.07, 11.15, 15.35, 15.72, 15.38, 16.42, 16.04, 11.18, 5.09, 3.38, 3.79, 3.78, 4.75, 5.31, 7.76, 5.6, 6.0, 6.0, 5.86, 5.86, 5.86, 5.86, 4.77, 4.77, 4.34, 4.34, 4.34, 4.34, 4.3, 3.87, 3.39, 3.39, 3.53, 3.09, 3.07, 3.07, 3.07, 3.07, 3.07, 3.07, 3.07, 3.07, 3.07, 3.07, 3.07, 3.07, 3.13, 3.13, 3.13, 3.13, 3.13, 3.13, 3.13, 3.13, 3.58, 3.58, 3.58, 3.58, 3.58, 3.58, 3.53, 3.97, 3.97, 3.97, 3.53, 3.39, 3.39, 3.39, 3.39, 3.82, 3.82, 3.82, 3.6, 3.2, 3.07, 3.07, 3.07, 2.79, 3.14, 3.14, 2.84, 2.84, 2.53, 2.53, 2.53, 1.88, 1.24, 1.79, 1.34, -0.0, -1.34, -0.45, -0.63, 0.0, 0.0, 1.16, 1.9, 1.79, 2.6, 6.55, 9.2, 9.23, 11.7, 17.36, 20.46, 15.34, 5.77, 1.98, 3.4, 5.59, 6.24, 8.41, 8.23, 6.7, 6.08, 6.07, 5.46, 6.0, 6.0, 6.0, 4.77, 4.77, 4.77, 4.77, 4.77, 4.34, 4.3, 3.87, 3.82, 3.39, 3.53, 3.53, 3.09, 3.07, 3.07, 3.07, 3.07, 3.07, 3.07, 2.63, 2.63, 2.63, 2.63, 2.68, 3.13, 3.13, 3.13, 3.13, 3.13, 3.13, 3.13, 3.13, 3.58, 3.58, 3.58, 3.58, 3.58, 3.53, 3.53, 3.53, 3.53, 3.53, 3.39, 3.39, 3.39, 3.39, 3.39, 3.39, 3.6, 3.6, 3.6, 3.2, 3.07, 3.07, 3.07, 3.14, 3.35, 3.35, 2.84, 2.84, 2.23, 2.53, 2.53, 2.21, 1.9, 1.58, 0.89, 1.34, -1.79, -1.34, 0.45, -0.6, 0.0, 0.0, 0.45, 0.63, 1.58, 3.79, 5.3, 4.37, 7.52, 15.09, 20.05, 19.19, 13.33, 4.0, 2.69, 4.87, 6.42, 5.59, 5.69, 5.69, 5.37, 5.43, 5.43, 5.43, 5.43, 5.43, 4.77, 4.77, 4.77, 4.77, 4.77, 4.34, 4.3, 3.87, 3.87, 3.82, 3.53, 3.53, 3.53, 3.09, 3.07, 3.07, 3.07, 3.07, 3.07, 2.63, 2.63, 2.68, 2.68, 2.68, 2.68, 2.68, 2.68, 3.13, 3.13, 3.13, 3.13, 3.13, 3.13, 3.58, 3.58, 3.58, 3.58, 3.53, 3.53, 3.53, 3.53, 3.53, 3.39, 3.39, 3.39, 3.39, 3.39, 3.2, 3.2, 3.6, 3.2, 3.07, 3.07, 3.07, 2.79, 3.14, 3.35, 3.35, 2.84, 2.84, 2.23, 2.53, 2.21, 2.21, 1.9, 1.9, 1.34, -1.79, -2.24, -1.79, -1.79, -1.2, -1.2, -1.34, -0.89, -0.0, 0.71, 1.49, 3.2, 3.69, 6.39, 11.44, 16.06, 17.44, 18.33, 12.3, 3.43, 2.06, 4.02, 3.43, 2.79, 2.51, 2.53, 2.86, 2.53, 2.84, 2.84, 2.84, 4.77, 4.77, 4.77, 4.77, 4.77, 4.34, 4.3, 3.87, 3.87, 3.82, 3.39, 3.53, 3.53, 3.53, 3.09, 3.07, 3.07, 3.07, 3.07, 2.63, 2.68, 2.68, 2.68, 2.68, 2.68, 2.68, 2.68, 2.68, 3.13, 3.13, 3.13, 3.13, 3.13, 3.58, 3.58, 3.58, 3.53, 3.53, 3.53, 3.53, 3.53, 3.39, 3.39, 3.39, 3.39, 3.39, 3.2, 3.2, 3.2, 3.2, 3.07, 3.07, 3.07, 3.07, 3.14, 3.14, 3.35, 3.72, 3.16, 2.84, 2.51, 2.23, 2.53, 2.21, 1.88, 1.0, 0.0, -1.79, -1.79, -1.7, -1.79, -1.79, -2.12, -1.79, -0.89, -0.0, -0.0, -0.0, 0.66, 2.88, 5.09, 7.32, 10.55, 14.74, 17.47, 15.72, 0.0, 0.0, 2.0, 2.84, 2.53, 1.58, 1.2, 0.89, 0.63, 0.63, 0.63, 0.63, 4.77, 4.77, 4.77, 4.77, 4.77, 4.34, 4.3, 3.87, 3.87, 3.87, 3.97, 3.53, 3.53, 3.53, 3.53, 3.07, 3.07, 3.07, 3.07, 2.68, 2.68, 2.68, 2.68, 2.68, 2.68, 2.68, 2.68, 2.68, 2.68, 3.13, 3.13, 3.13, 3.13, 3.13, 3.58, 3.58, 3.53, 3.53, 3.53, 3.53, 3.53, 3.39, 3.39, 3.39, 3.39, 3.39, 3.2, 3.2, 3.07, 3.07, 3.07, 3.07, 3.07, 2.79, 3.14, 3.14, 3.14, 3.43, 3.16, 2.84, 2.51, 2.23, 2.53, 1.88, 1.88, 1.2, 0.0, -2.54, -2.24, -2.24, -1.79, -0.8, -0.45, -1.7, -1.34, -0.63, -0.0, -0.0, -0.0, 2.15, 3.79, 4.81, 6.7, 12.14, 17.0, 5.78, -1.61, -2.44, 0.0, 2.23, 3.07, 2.4, 0.89, -0.0, -0.32, -1.2, -1.2, -1.2, 4.77, 4.77, 4.77, 4.77, 4.34, 4.3, 4.3, 3.87, 3.87, 3.87, 3.98, 3.53, 3.53, 3.53, 3.53, 3.09, 3.07, 3.07, 3.13, 2.68, 2.68, 2.68, 2.68, 2.68, 2.68, 2.68, 2.68, 2.68, 2.68, 2.68, 3.13, 3.13, 3.13, 3.13, 3.58, 3.58, 3.53, 3.53, 3.53, 3.53, 3.53, 3.39, 3.39, 3.39, 3.39, 3.2, 3.07, 3.07, 3.07, 3.07, 3.07, 3.07, 2.79, 3.14, 3.14, 3.14, 2.84, 3.43, 3.16, 2.84, 2.51, 2.23, 2.23, 1.84, 1.84, 1.2, 0.0, -1.58, -2.8, -2.4, -2.17, -0.89, 0.45, 0.45, -1.34, -1.34, -0.6, -0.57, -0.0, 1.49, 2.53, 3.49, 4.93, 10.26, 18.27, 5.81, -2.68, -3.14, -1.84, 0.0, 2.21, 2.79, 1.26, 0.0, -0.45, -1.34, -1.34, -1.34, 4.77, 4.77, 4.77, 4.77, 4.34, 4.3, 4.3, 3.87, 3.87, 3.87, 3.98, 3.53, 3.53, 3.53, 3.53, 3.09, 3.07, 3.07, 3.13, 2.68, 2.68, 2.68, 2.68, 2.68, 2.68, 2.68, 2.68, 2.68, 2.68, 2.68, 2.68, 3.13, 3.13, 3.13, 3.13, 3.53, 3.53, 3.53, 3.53, 3.53, 3.39, 3.39, 3.39, 3.39, 3.39, 3.2, 3.07, 3.07, 3.07, 3.07, 3.07, 3.07, 2.79, 3.14, 3.14, 2.84, 2.84, 3.16, 3.16, 2.84, 2.51, 2.51, 1.84, 1.84, 1.84, 1.16, 0.0, -1.24, -2.53, -2.86, -2.5, -1.24, 0.0, 0.95, 0.0, -0.89, -0.6, -0.0, 0.6, 1.26, 1.9, 2.5, 5.59, 17.42, 18.56, 5.36, -1.16, -1.58, -1.34, 0.0, 1.24, 1.61, 0.0, -0.6, -1.2, -2.12, -2.12, -2.12, 4.77, 4.77, 4.77, 4.34, 4.34, 4.3, 4.3, 3.87, 3.87, 3.98, 3.98, 3.97, 3.53, 3.53, 3.53, 3.53, 3.07, 3.07, 3.13, 2.68, 2.68, 2.68, 2.68, 2.68, 2.68, 2.68, 2.68, 2.68, 2.68, 2.68, 2.68, 3.13, 3.13, 3.13, 3.09, 3.53, 3.53, 3.53, 3.53, 3.39, 3.39, 3.39, 3.39, 3.39, 3.39, 3.07, 3.07, 3.07, 3.07, 3.07, 3.07, 2.79, 3.14, 3.14, 2.84, 2.84, 3.16, 3.16, 3.16, 2.84, 2.23, 1.8, 1.84, 2.07, 1.8, 1.33, 0.61, 0.0, -1.61, -2.21, -1.88, -1.16, -0.65, 0.0, 0.0, -0.45, -0.89, 0.0, 1.34, 1.2, 1.7, 2.4, 10.7, 17.43, 17.88, 3.97, -2.0, -1.33, -1.24, -1.34, -0.63, 0.0, -0.63, -1.26, -2.12, -2.6, -2.6, -2.6, 4.77, 4.77, 4.34, 4.34, 4.3, 4.3, 4.3, 3.87, 3.98, 3.98, 3.98, 3.53, 3.53, 3.53, 3.53, 3.53, 3.07, 3.07, 3.13, 2.68, 2.68, 2.68, 2.68, 2.68, 2.68, 2.68, 2.68, 2.68, 2.68, 2.68, 2.68, 2.68, 3.13, 3.13, 3.07, 3.09, 3.53, 3.53, 3.53, 3.39, 3.39, 3.39, 3.39, 3.39, 3.07, 3.07, 3.07, 3.07, 3.07, 3.07, 2.79, 2.79, 3.14, 2.84, 2.84, 3.16, 3.16, 3.16, 2.86, 2.86, 2.23, 1.8, 1.8, 1.8, 1.8, 1.13, 0.59, 0.0, 0.0, -0.99, -1.24, -1.88, -1.16, -1.2, -0.71, -0.99, -0.6, 0.0, 1.26, 1.2, 1.34, 2.24, 8.91, 15.47, 17.73, 3.82, -2.53, -2.79, -2.53, -3.13, -2.63, -1.34, -1.34, -1.34, -2.12, -3.07, -3.07, -3.07, 4.34, 4.34, 4.34, 4.34, 4.3, 4.3, 3.87, 3.87, 3.98, 3.98, 3.98, 3.53, 3.53, 3.53, 3.53, 3.53, 3.07, 3.07, 3.13, 2.68, 2.68, 2.68, 2.68, 2.68, 2.68, 2.68, 2.68, 2.68, 2.68, 2.68, 2.68, 2.68, 3.13, 3.07, 3.07, 3.07, 3.53, 3.53, 3.39, 3.39, 3.39, 3.39, 3.39, 3.32, 3.07, 3.07, 3.07, 3.07, 3.07, 2.79, 2.79, 2.79, 3.14, 2.84, 3.16, 3.16, 2.86, 2.86, 2.86, 2.48, 2.23, 1.8, 1.8, 1.8, 1.8, 1.27, 0.59, 0.59, 0.61, 0.0, -0.95, -1.9, -1.88, -1.88, -1.86, -0.95, -0.57, 0.0, 0.65, 1.24, 1.26, 3.07, 6.66, 12.07, 17.27, 8.36, -1.58, -4.75, -3.14, -3.53, -3.97, -3.13, -2.17, -1.79, -2.24, -3.13, -3.13, -3.13, 4.34, 4.34, 4.34, 4.34, 4.3, 4.3, 3.98, 3.98, 3.98, 3.98, 3.97, 3.53, 3.53, 3.53, 3.53, 3.53, 3.07, 3.07, 3.13, 2.68, 2.68, 2.68, 2.68, 2.68, 2.68, 2.68, 2.68, 2.68, 2.68, 2.68, 2.68, 2.68, 2.63, 3.07, 3.07, 3.07, 3.07, 3.32, 3.32, 3.32, 3.32, 3.32, 3.32, 3.07, 3.07, 3.07, 3.07, 3.07, 2.79, 2.79, 2.79, 3.14, 2.84, 2.84, 3.16, 2.86, 2.86, 2.86, 2.86, 2.48, 2.48, 1.8, 1.8, 1.8, 1.8, 1.8, 1.11, 0.57, 1.33, 0.0, -0.95, -1.9, -2.53, -2.5, -2.0, -1.2, -0.6, 0.0, 0.0, 0.53, 1.4, 2.86, 5.05, 8.63, 14.75, 12.94, 0.89, -3.72, -3.16, -3.07, -4.02, -4.02, -2.68, -1.79, -2.68, -3.13, -3.13, -3.13, 4.34, 4.34, 4.34, 4.44, 4.43, 4.43, 3.98, 3.98, 3.98, 3.98, 3.53, 3.53, 3.53, 3.53, 3.53, 3.53, 3.07, 3.07, 3.13, 3.13, 2.68, 2.68, 2.68, 2.68, 2.68, 2.68, 2.68, 2.68, 2.68, 2.68, 2.68, 2.63, 2.63, 3.07, 3.07, 3.07, 3.07, 2.91, 3.32, 3.32, 3.32, 3.32, 3.07, 3.07, 3.07, 3.07, 3.07, 2.79, 2.79, 2.79, 3.14, 2.84, 2.84, 3.16, 2.86, 2.86, 2.86, 2.86, 2.86, 2.48, 2.48, 1.76, 1.58, 1.58, 1.8, 1.8, 1.11, 1.11, 1.13, 0.0, -0.57, -1.88, -2.53, -2.5, -1.9, -1.24, 0.0, 0.0, 0.0, 0.0, 0.61, 2.15, 4.46, 7.07, 12.14, 15.18, 6.66, -1.34, -3.14, -2.53, -3.39, -4.02, -3.13, -2.68, -2.68, -3.13, -3.13, -3.13, 4.44, 4.44, 4.44, 4.44, 4.43, 3.98, 3.98, 3.98, 3.98, 3.97, 3.53, 3.53, 3.53, 3.53, 3.53, 3.09, 3.07, 3.07, 3.13, 3.13, 2.68, 2.68, 2.68, 2.68, 2.68, 2.68, 2.68, 2.68, 2.68, 2.68, 2.6, 2.6, 2.63, 3.07, 3.07, 3.07, 2.91, 2.91, 2.91, 3.32, 3.32, 3.07, 3.07, 3.07, 3.07, 3.07, 2.79, 2.79, 2.79, 3.14, 3.14, 2.84, 2.84, 2.86, 2.86, 2.86, 2.86, 2.86, 2.86, 2.22, 2.22, 1.76, 1.76, 1.76, 1.76, 1.76, 1.76, 1.11, 1.11, 1.13, 0.0, -1.2, -1.9, -1.86, -1.9, -1.4, -1.2, -0.71, -1.2, 0.0, 0.0, 1.4, 4.46, 7.07, 10.68, 13.96, 12.43, 2.91, -2.12, -3.07, -3.07, -3.53, -3.58, -3.13, -3.13, -3.13, -3.13, -3.13, 4.44, 4.44, 4.44, 4.43, 4.43, 3.98, 3.98, 3.98, 3.98, 3.97, 3.53, 3.53, 3.53, 3.53, 3.53, 3.53, 3.09, 3.13, 3.13, 3.13, 2.68, 2.68, 2.68, 2.68, 2.68, 2.68, 2.68, 2.68, 2.68, 2.6, 2.6, 2.6, 2.6, 2.63, 3.07, 2.91, 2.91, 2.91, 2.91, 3.32, 3.07, 3.07, 3.07, 3.07, 3.07, 2.79, 2.79, 2.79, 3.14, 3.14, 2.84, 2.84, 3.16, 2.86, 2.86, 2.86, 2.86, 2.86, 2.22, 2.22, 2.22, 1.76, 1.76, 1.23, 1.76, 1.76, 1.76, 1.23, 1.23, 1.8, 1.13, 0.0, 0.0, -0.45, -1.26, -1.88, -1.88, -1.24, -1.2, -0.61, 0.0, 1.49, 4.74, 7.06, 9.84, 12.8, 14.11, 10.25, 2.6, -1.34, -2.91, -2.91, -3.39, -3.53, -3.09, -2.68, -2.68, -2.68, 4.44, 4.44, 4.44, 4.43, 3.98, 3.98, 3.98, 3.98, 3.98, 3.98, 3.53, 3.53, 3.53, 3.53, 3.53, 3.53, 3.53, 3.13, 3.13, 3.13, 3.13, 2.68, 2.68, 2.68, 2.68, 2.68, 2.68, 2.6, 2.6, 2.6, 2.6, 2.6, 2.6, 2.4, 2.91, 2.91, 2.91, 2.91, 2.91, 2.68, 3.07, 3.07, 3.07, 3.07, 2.79, 2.79, 2.79, 3.14, 3.14, 2.84, 2.84, 2.84, 2.86, 2.86, 2.86, 2.86, 2.48, 2.22, 2.44, 2.44, 2.44, 1.76, 1.23, 1.23, 1.23, 1.76, 1.76, 1.76, 1.08, 1.76, 1.8, 1.84, 1.26, 0.0, -0.63, -1.9, -1.88, -1.9, -1.2, -0.61, 0.0, 2.2, 4.36, 6.7, 9.6, 11.45, 12.3, 12.94, 9.81, 3.07, 0.45, -2.17, -2.49, -2.63, -2.17, -1.79, -1.79, -1.79, 4.44, 4.44, 4.44, 4.43, 3.98, 3.98, 3.98, 3.98, 3.98, 3.98, 3.53, 3.53, 3.53, 3.53, 3.53, 3.53, 3.53, 3.13, 3.13, 3.13, 3.13, 2.68, 2.68, 2.68, 2.68, 2.68, 2.68, 2.6, 2.6, 2.6, 2.6, 2.6, 2.6, 2.4, 2.91, 2.91, 2.91, 2.91, 2.91, 2.68, 3.07, 3.07, 3.07, 3.07, 2.79, 2.79, 2.79, 3.14, 3.14, 2.84, 2.84, 2.84, 2.86, 2.86, 2.86, 2.86, 2.48, 2.22, 2.44, 2.44, 2.44, 1.76, 1.23, 1.23, 1.23, 1.76, 1.76, 1.76, 1.08, 1.76, 1.8, 1.84, 1.26, 0.0, -0.63, -1.9, -1.9, -1.9, -1.2, -0.61, 0.0, 2.0, 4.07, 6.06, 8.05, 10.01, 11.4, 12.49, 12.52, 9.83, 3.97, 1.34, 0.0, -0.0, -0.0, -0.0, -0.0, -0.0]}, {"header": {"dx": 0.06612293990616946, "dy": 0.0552356325346848, "nx": 98, "ny": 59, "la1": 35.046912555036876, "la2": 31.78801023549047, "lo1": -121.43107172385933, "lo2": -114.95102361305473, "refTime": "2026041013", "parameterCategory": 1, "parameterNumber": 3}, "data": [3.39, 3.53, 3.58, 3.58, 3.13, 3.09, 3.07, 2.91, 2.6, 2.24, 1.79, 1.34, 1.34, 1.34, 1.34, 0.95, -0.0, -0.0, -0.0, 0.95, 1.79, 2.24, 2.4, 2.4, 2.5, 2.5, 2.15, 2.53, 2.86, 3.32, 3.07, 1.34, 0.45, 0.63, 0.6, 0.63, 0.45, 1.34, 1.79, 1.79, 1.2, 0.0, -0.63, -1.24, -2.2, -3.69, -4.0, -4.5, -3.7, -0.72, 2.2, 4.74, 5.69, 5.59, 5.59, 5.59, 5.94, 5.76, 5.13, 4.6, 4.37, 3.91, 4.03, 4.16, 3.64, 4.16, 3.91, 4.0, 3.95, 3.76, 3.07, 2.28, 2.26, 0.79, 0.61, 1.33, 1.0, 0.45, -0.0, -0.65, -0.7, -1.33, -1.49, -1.4, -2.23, -2.24, -1.6, -1.26, -1.49, -3.27, -4.8, -6.2, -6.97, -6.97, -6.87, -6.09, -5.28, -3.69, 2.91, 3.53, 3.13, 3.13, 3.13, 3.13, 3.07, 2.4, 2.6, 2.24, 1.79, 1.79, 1.34, 0.89, 1.79, 1.79, -0.0, -0.0, -0.0, 0.8, 1.6, 1.34, 2.12, 2.23, 2.5, 1.88, 1.88, 2.21, 2.5, 2.91, 3.07, 2.17, 1.2, 0.45, -0.0, 0.32, 0.45, 0.89, 1.79, 1.79, 0.63, -0.45, -1.86, -3.49, -5.43, -5.21, -5.13, -3.91, -0.73, 1.33, 4.43, 5.37, 5.3, 5.21, 5.35, 5.59, 5.49, 5.38, 4.83, 4.83, 4.0, 4.12, 4.03, 4.65, 4.74, 4.65, 4.71, 4.83, 3.95, 3.91, 3.91, 3.11, 1.55, 0.7, 0.7, 0.7, 0.73, 0.45, -0.0, -0.65, -0.7, -1.33, -1.49, -1.4, -2.23, -2.24, -1.6, -1.26, -1.49, -3.27, -4.8, -6.2, -6.97, -6.97, -6.87, -6.09, -5.28, -3.69, 2.91, 3.07, 3.13, 3.13, 3.13, 2.68, 2.63, 2.6, 2.17, 2.24, 1.79, 1.79, 1.34, 0.89, 0.89, 0.89, 0.0, -0.0, -0.0, 0.8, 0.57, 0.6, 0.89, 1.6, 2.23, 2.5, 2.21, 1.88, 1.9, 2.17, 2.68, 3.07, 2.4, 1.58, 0.57, 0.0, 0.0, 0.0, 0.45, 0.45, -0.89, -2.63, -4.8, -6.08, -6.35, -5.69, -2.88, 0.0, 1.84, 3.72, 4.36, 4.29, 4.03, 4.56, 4.71, 4.83, 4.71, 4.6, 4.5, 3.7, 3.8, 3.79, 4.74, 4.74, 4.74, 5.37, 5.49, 5.28, 5.41, 4.58, 4.06, 2.95, 1.52, 0.0, 0.0, 0.0, 0.0, 0.0, -0.57, -0.61, -0.7, -1.33, -2.07, -3.07, -2.53, -3.04, -2.54, -1.58, -3.22, -5.52, -7.01, -7.54, -8.76, -8.46, -6.31, -3.8, -2.26, -1.6, 2.6, 2.68, 2.68, 2.68, 2.68, 2.68, 2.68, 2.17, 2.12, 1.79, 1.79, 1.79, 1.79, 1.34, 0.95, 0.0, 0.0, 0.0, -0.0, -0.0, 0.57, -0.0, 0.6, 0.89, 1.7, 2.6, 2.53, 1.88, 1.61, 1.49, 2.24, 2.68, 2.68, 2.23, 1.6, 0.7, 0.0, 0.0, -0.57, -1.26, -2.5, -4.4, -5.43, -4.46, -3.48, -1.33, 0.7, 2.73, 3.64, 3.9, 3.32, 3.11, 3.11, 3.64, 3.9, 4.56, 3.91, 4.0, 3.7, 3.06, 3.27, 3.64, 4.46, 5.43, 6.07, 6.06, 6.24, 6.51, 6.62, 6.44, 5.2, 3.11, 0.78, 0.0, -1.33, -1.33, -1.47, -0.61, -1.26, -1.49, -1.27, -1.16, -2.15, -3.22, -2.98, -1.24, -1.79, -3.22, -5.49, -7.79, -8.72, -8.56, -7.73, -4.83, 0.0, 0.0, 0.0, -0.78, 2.17, 2.68, 2.68, 2.68, 2.68, 2.24, 2.24, 2.17, 1.7, 1.79, 1.34, 1.34, 1.34, 1.34, 1.34, 0.0, 0.0, 0.0, 0.0, -0.0, -0.0, 0.95, 0.63, 0.89, 1.79, 2.12, 2.21, 1.74, 1.49, 1.24, 1.7, 1.7, 1.2, 0.95, 0.76, 0.0, 0.0, 0.0, -1.27, -2.53, -2.53, -2.15, -1.33, -0.7, 0.0, 1.41, 3.64, 3.9, 3.9, 3.33, 3.22, 3.22, 2.73, 2.98, 3.64, 3.69, 3.6, 3.15, 3.21, 3.06, 2.35, 3.84, 5.34, 6.28, 7.03, 6.7, 6.32, 6.95, 7.08, 7.01, 6.09, 4.76, 2.88, 0.0, -1.4, -2.5, -2.53, -2.21, -1.79, -2.73, -2.11, -1.84, -2.15, -2.88, -3.9, -3.2, -4.15, -6.64, -8.76, -9.6, -8.84, -7.73, -2.3, 1.34, 2.17, 1.33, 0.0, -2.23, 2.17, 2.68, 2.68, 2.24, 2.24, 2.24, 2.24, 2.12, 1.7, 1.34, 1.34, 0.89, 0.89, 0.89, 0.0, -0.0, 0.0, 0.0, 0.0, -0.0, -0.0, -0.0, 0.0, 0.89, 0.95, 0.8, 1.24, 1.4, 0.65, 0.85, 1.24, 1.34, 0.89, 0.0, 0.0, 0.0, 0.0, 0.0, -0.66, -1.9, -1.86, -0.57, 0.0, 0.66, 2.11, 3.64, 3.9, 3.9, 3.11, 2.2, 2.3, 2.3, 2.3, 2.3, 2.88, 3.09, 2.31, 2.31, 2.28, 2.28, 2.2, 3.95, 6.51, 7.21, 7.03, 7.06, 6.32, 6.32, 6.14, 6.33, 5.55, 5.35, 4.61, 2.95, 0.0, -1.58, -2.63, -2.63, -2.24, -2.15, -3.72, -4.46, -3.84, -4.43, -5.82, -7.6, -9.27, -10.18, -10.34, -10.12, -9.17, -4.74, 1.79, 3.32, 1.7, 0.0, -3.11, -3.85, 2.24, 2.24, 2.24, 2.24, 2.24, 2.24, 2.24, 1.7, 1.7, 1.34, 1.34, 0.95, 0.0, 0.0, 0.0, -0.0, -0.0, -0.89, -1.34, -0.45, -0.32, -0.8, -1.34, -0.89, -0.6, 0.0, 0.0, 0.0, 0.0, 0.57, 1.58, 1.49, 1.2, 0.0, -0.53, -0.51, -0.59, 0.0, 0.0, 0.0, -0.63, -0.45, 0.0, 0.65, 1.6, 3.72, 4.95, 4.56, 4.01, 3.45, 2.99, 1.84, 2.0, 1.41, 1.35, 0.72, 0.74, 0.74, 0.77, 0.76, 2.21, 4.47, 5.77, 6.28, 6.0, 6.06, 6.01, 4.56, 3.91, 3.85, 3.73, 3.14, 3.47, 2.33, 1.56, 0.0, -1.2, -1.79, -2.17, -3.51, -5.34, -7.45, -6.98, -6.98, -8.46, -10.98, -12.08, -11.87, -10.81, -9.56, -6.35, 0.0, 3.32, 2.8, 0.0, -2.29, -4.8, -5.3, 2.24, 2.24, 2.24, 2.24, 1.79, 1.79, 1.79, 1.7, 1.6, 1.34, 1.34, 0.95, 0.0, 0.0, 0.0, -0.0, 0.0, 0.0, 0.0, 0.0, 0.0, 0.0, -0.63, -1.7, -2.12, -1.58, -1.58, -1.26, 0.0, 0.0, 0.6, 0.8, 0.0, 0.0, -0.59, -1.13, -1.33, -0.66, 0.0, 0.0, -0.0, -0.0, -0.0, 0.0, 0.95, 3.79, 4.81, 6.01, 5.3, 5.37, 1.88, 1.33, 1.41, 1.35, 0.0, 0.0, 0.0, 0.0, 0.0, 0.0, 2.6, 3.58, 3.13, 4.8, 3.84, 3.72, 3.69, 2.26, 0.74, 0.78, 1.54, 0.75, 0.0, 0.0, 0.0, 0.0, 0.0, 0.0, -1.4, -4.43, -5.72, -8.49, -8.94, -9.36, -10.08, -11.8, -11.94, -11.25, -10.24, -7.02, -1.2, 1.86, 2.8, 1.79, 0.0, -3.09, -5.63, -5.41, 2.24, 2.24, 1.79, 1.79, 1.79, 1.79, 1.79, 1.7, 1.6, 1.34, 1.34, 1.2, 0.0, 0.0, 0.0, 0.0, -0.89, -0.89, 0.0, 0.0, 0.45, 0.89, 0.0, -0.95, -1.7, -1.58, -1.6, -1.34, -0.45, 0.0, -0.71, -0.71, -0.65, -0.76, -0.51, -0.59, -1.6, -1.6, -0.76, 0.0, -0.6, -0.57, -0.57, -0.0, 0.0, 2.54, 4.8, 5.06, 6.32, 5.3, 5.15, 2.07, 1.41, 0.7, 0.0, -0.73, -1.35, -1.52, -0.73, 1.24, 3.04, 3.95, 3.04, 2.8, 1.6, 2.4, 2.4, 0.76, -0.74, -0.77, 0.0, -0.71, -0.76, -1.36, -0.71, -0.7, -0.59, -0.72, -1.54, -3.44, -4.01, -6.67, -8.46, -9.62, -10.1, -10.79, -10.35, -9.92, -8.24, -2.86, 0.89, 1.7, 1.34, 0.0, -1.88, -4.83, -6.2, -6.31, 2.24, 2.24, 1.79, 1.79, 1.79, 1.79, 1.79, 1.6, 1.2, 0.95, 0.89, 0.95, 0.6, 0.6, 0.0, -1.34, -1.79, -2.24, -1.34, -1.34, -0.95, 0.0, 0.0, -0.63, -1.34, -1.34, -0.45, -0.45, -0.89, -1.58, -1.88, -1.24, -0.6, 0.0, -0.57, -0.76, -0.7, -1.33, -0.8, -0.89, -1.86, -1.24, -1.26, -0.6, -0.0, 1.34, 1.49, 1.88, 3.72, 6.06, 6.39, 6.06, 4.65, 2.29, 0.73, 0.0, -0.59, -2.15, -0.71, 2.6, 5.77, 6.66, 6.79, 3.22, 2.41, 2.2, 2.26, 1.36, -1.36, -3.91, -3.11, -2.76, -2.81, -2.06, -2.06, -2.8, -4.36, -4.6, -4.15, -3.53, -3.61, -3.48, -5.2, -6.85, -7.06, -7.33, -7.92, -7.59, -5.36, -1.86, 0.0, 0.0, -1.2, -2.4, -4.81, -6.05, -6.97, -4.56, 2.24, 2.12, 1.7, 1.79, 1.79, 1.79, 1.34, 1.2, 1.2, 0.63, 0.89, 0.89, 0.95, 0.8, 0.0, 0.0, -1.0, -2.23, -3.32, -3.39, -1.34, -0.89, -0.63, -0.63, -1.34, 0.0, 0.0, 0.0, -0.45, -1.58, -1.24, 0.0, 0.0, 0.0, -0.8, -0.85, -0.61, 0.0, -0.63, -1.79, -1.79, -0.89, -0.45, 0.0, 1.79, 1.79, 2.6, 2.91, 3.07, 5.34, 7.6, 8.67, 8.3, 8.03, 6.68, 6.06, 4.43, 0.0, -0.0, 3.97, 8.05, 8.36, 6.28, 5.34, 6.4, 7.07, 6.24, 4.71, 0.0, -2.73, -4.46, -4.31, -3.39, -3.37, -3.6, -3.97, -5.37, -6.68, -6.79, -5.4, -2.69, -1.16, -1.86, -2.86, -2.86, -2.86, -4.09, -4.09, -2.86, -1.26, -1.86, -2.4, -2.8, -3.74, -6.08, -7.52, -5.94, -1.2, 1.79, 2.12, 2.12, 1.7, 1.79, 1.34, 1.34, 1.34, 1.34, 0.63, 0.0, 0.0, 0.0, 0.0, 0.0, 0.0, 0.0, -0.61, -1.13, -1.11, 0.0, 0.57, 0.51, 0.0, 1.13, 1.4, 0.0, 0.6, 0.63, 0.0, 0.0, 0.63, 0.89, -0.0, 0.0, 0.0, 0.0, 0.0, -0.63, -1.34, -0.45, 0.0, 0.95, 1.58, 3.58, 3.13, 3.58, 4.47, 5.29, 6.17, 6.55, 8.4, 9.74, 10.8, 10.8, 10.87, 10.91, 6.06, 0.45, 3.84, 8.91, 8.8, 7.21, 6.66, 9.36, 11.45, 11.83, 10.55, 6.95, 2.2, 0.0, 0.0, -0.67, -1.35, -2.73, -3.72, -3.79, -4.46, -4.71, -3.32, 0.0, 0.6, -0.6, -1.24, -1.2, -1.2, -1.88, -1.9, -1.24, -1.58, -2.8, -3.32, -3.74, -4.8, -7.06, -6.88, -2.5, -0.0, 1.79, 1.7, 2.12, 2.12, 1.7, 1.79, 1.34, 1.34, 0.89, 0.89, 0.0, 0.0, 0.0, 0.0, 0.0, 0.0, 0.0, 0.0, 0.0, 0.0, 0.53, 1.12, 1.76, 1.76, 1.65, 1.67, 1.19, 1.58, 1.88, 1.26, 0.0, 0.0, 0.32, 0.0, 0.45, 0.6, 0.6, -0.0, -0.0, -0.6, -0.0, 0.89, 1.79, 1.79, 2.54, 3.04, 3.04, 3.04, 3.13, 3.13, 3.58, 3.53, 3.82, 4.3, 5.94, 6.0, 8.72, 11.06, 3.2, 3.32, 8.63, 8.9, 8.01, 8.94, 10.26, 11.15, 12.92, 13.35, 11.88, 10.91, 9.27, 7.52, 5.38, 2.0, -0.65, -1.9, -1.58, -1.26, -0.71, 0.0, 1.26, 0.57, -0.57, -2.12, -0.71, -0.76, -1.16, -0.54, -0.57, -1.24, -1.9, -3.45, -3.74, -5.43, -7.35, -6.01, -1.26, -0.0, 1.34, 1.79, 1.7, 1.86, 1.86, 1.7, 1.2, 1.34, 0.89, 0.89, 0.0, 0.0, 0.0, 0.0, 0.0, 0.0, 0.0, 0.0, 0.0, 0.0, 0.0, 0.57, 1.2, 1.2, 1.2, 1.12, 1.14, 0.61, 0.66, 0.53, 0.0, 0.0, 0.0, 0.0, -0.0, 0.8, -0.0, -0.0, -0.0, -0.63, -0.0, -0.0, 1.2, 3.39, 3.82, 3.82, 1.49, 1.26, 1.6, 1.6, 1.79, 0.89, 0.0, 0.0, 0.0, -0.0, 0.89, 4.6, 5.5, 4.66, 7.89, 8.49, 9.39, 9.77, 8.82, 8.82, 9.39, 9.58, 10.4, 9.66, 11.25, 10.12, 8.46, 5.49, 1.84, 0.0, 0.89, 0.8, 0.54, 0.65, 0.0, 0.0, -1.2, -2.23, -2.0, -1.88, -1.4, 0.0, 0.0, -1.0, -1.88, -2.5, -4.46, -6.08, -6.64, -4.65, -1.26, -0.45, 0.89, 1.34, 1.7, 1.86, 1.86, 1.86, 1.49, 1.2, 1.2, 0.63, 0.89, 0.0, 0.0, 0.0, 0.0, 0.0, 0.0, 0.0, 0.0, 0.0, 0.0, 0.53, 0.57, 1.12, 1.12, 1.12, 0.58, 0.0, 0.0, 0.0, 0.0, -0.71, 0.0, 0.0, 0.0, 0.0, 0.0, 0.0, 0.0, -0.45, 0.0, 0.0, 1.34, 2.4, 3.2, 3.2, 2.8, 1.9, 1.9, -0.0, 0.0, 0.0, -0.89, -0.45, 0.0, -0.8, -2.12, -2.04, 1.41, 6.52, 5.75, 5.4, 5.4, 4.0, 4.4, 4.98, 4.34, 4.47, 5.37, 6.87, 7.64, 6.97, 4.5, 2.31, 0.57, 2.21, 3.07, 2.79, 1.33, 0.0, -1.4, -2.15, -2.53, -2.5, -3.53, -3.74, -1.9, -0.99, -0.8, -1.74, -2.15, -2.84, -4.12, -5.09, -5.3, -1.4, -1.24, -1.24, 0.89, 1.34, 1.2, 1.7, 1.86, 1.9, 1.86, 1.86, 1.26, 1.2, 0.63, 0.89, 0.0, 0.0, 0.0, 0.0, 0.0, 0.0, 0.0, 0.0, 0.0, 0.54, 0.53, 1.14, 1.12, 1.2, 0.57, 0.0, 0.0, 0.0, -0.57, -0.59, -0.54, 0.0, 0.0, 0.0, 0.0, 0.0, 0.0, 0.0, 0.0, 0.0, 0.0, 2.68, 3.2, 3.2, 3.39, 2.8, 2.24, 1.79, 0.0, 0.0, 0.0, 0.0, 0.0, 0.0, -2.24, -2.53, 0.0, 2.84, 3.13, 3.2, 2.84, 2.53, 0.8, 0.71, 1.24, 2.6, 5.94, 6.87, 4.6, 1.43, 0.0, -1.49, 0.0, 3.6, 6.7, 6.24, 3.69, 1.27, 0.0, -1.9, -3.2, -2.8, -3.51, -4.02, -3.95, -2.6, -3.04, -3.83, -3.79, -3.49, -4.12, -4.29, -4.94, -3.43, -2.53, -2.53, 0.95, 1.2, 1.2, 1.6, 1.86, 1.9, 1.9, 1.9, 1.86, 1.26, 1.6, 1.34, 0.89, 0.0, 0.0, 0.0, 0.0, 0.0, 0.0, 0.0, 0.0, 0.0, 0.54, 1.16, 1.12, 1.2, 0.61, 0.0, 0.0, -0.63, -0.57, -0.66, -1.16, -1.4, -0.95, 0.0, 0.0, 0.0, 0.0, 0.0, -1.79, -0.45, 0.0, 1.34, 2.8, 3.2, 3.2, 3.13, 2.68, 2.68, 1.79, 1.34, 1.34, 1.26, 1.58, 1.58, 0.0, 0.0, 2.68, 2.68, 1.9, 2.68, 2.8, 2.8, 1.9, 0.63, -0.0, 0.8, 2.12, 3.35, 1.09, -2.1, -3.88, -1.8, 1.7, 6.55, 9.27, 9.17, 7.63, 5.52, 3.8, 0.73, -1.61, -2.6, -2.24, -2.24, -3.58, -3.58, -5.16, -5.43, -4.12, -2.21, -2.86, -5.72, -6.24, -5.37, -4.12, -4.12, 0.6, 1.2, 1.6, 1.6, 1.26, 1.58, 1.9, 1.9, 1.9, 1.86, 1.86, 1.6, 1.2, 0.6, 0.0, 0.0, 0.0, 0.0, 0.0, 0.0, 0.0, 0.0, 0.0, 0.61, 1.26, 1.23, 0.58, 0.0, 0.0, 0.0, -0.61, -0.61, -1.33, -1.4, -1.49, -2.0, -1.6, -2.24, -1.26, -1.6, -1.2, -0.89, 0.0, 0.45, 2.68, 3.13, 3.13, 2.68, 2.68, 2.68, 3.13, 3.13, 2.68, 1.9, 1.9, 1.9, 3.13, 3.58, 2.68, 1.58, 1.9, 2.4, 3.13, 4.24, 4.09, 1.7, 1.2, -0.95, -2.6, -3.52, -2.11, -1.5, -0.69, 0.61, 2.91, 4.3, 6.7, 7.63, 7.82, 6.31, 5.4, 3.91, 0.0, -2.24, -1.79, -2.24, -3.58, -4.92, -6.21, -6.28, -4.22, -2.21, -4.09, -6.96, -7.02, -6.06, -5.72, -5.72, 0.8, 1.26, 1.26, 1.26, 1.26, 1.58, 1.58, 1.9, 1.9, 1.9, 1.86, 1.86, 1.26, 0.8, 0.0, 0.0, 0.0, 0.0, 0.0, 0.0, 0.0, -0.61, 0.0, 0.0, 0.0, 0.0, 0.0, 0.0, 0.0, 0.0, 0.0, -0.65, -0.65, -1.16, -1.16, -1.88, -1.88, -2.5, -1.86, -2.12, -1.86, -1.2, 0.0, 1.79, 2.68, 2.68, 2.68, 2.68, 2.68, 2.68, 2.68, 2.68, 2.68, 2.68, 2.68, 2.68, 2.68, 1.9, 2.21, 1.4, 1.4, 1.9, 2.68, 1.86, 3.2, 3.6, 1.86, -0.89, -4.4, -5.46, -1.05, 2.33, 4.58, 4.55, 2.31, 0.59, 0.0, 0.0, 1.5, 2.25, 1.5, 0.73, -1.4, -2.6, -2.24, -2.68, -3.58, -3.53, -6.66, -6.67, -5.31, -5.43, -6.08, -7.54, -7.67, -6.44, -6.07, -6.07, 0.57, 1.24, 1.24, 1.24, 1.24, 1.24, 1.24, 1.9, 1.9, 1.9, 1.58, 1.24, 1.26, 0.57, 0.0, 0.0, 0.0, 0.0, 0.0, 0.0, 0.0, -0.54, -0.71, -0.85, -0.79, 0.0, 0.0, 0.0, 0.0, 0.0, 0.0, 0.0, -0.65, -0.65, -1.16, -1.16, -1.84, -1.84, -1.84, -1.84, -1.84, -0.61, 0.0, 1.16, 1.88, 1.4, 1.9, 1.9, 1.9, 2.68, 2.68, 2.68, 2.68, 2.68, 2.24, 2.0, 2.8, 2.23, 0.85, 0.0, 0.0, 1.58, 2.8, 3.35, 3.6, 3.22, 2.53, 0.89, 0.0, 0.0, 2.39, 5.45, 6.26, 3.89, 0.0, -3.85, -6.58, -7.9, -3.96, -1.55, -0.78, 0.0, -0.53, -1.86, -2.17, -2.17, -1.7, -1.26, -3.53, -4.92, -8.05, -8.82, -8.63, -8.55, -8.14, -7.6, -6.07, -6.07, 0.71, 0.71, 1.24, 1.24, 1.24, 1.24, 1.24, 1.49, 1.49, 1.24, 1.24, 1.24, 0.71, 0.71, 0.0, 0.0, 0.0, 0.0, 0.0, 0.0, 0.0, 0.0, 0.0, -0.65, -0.59, -0.55, 0.0, 0.0, 0.0, 0.0, 0.0, 0.0, 0.0, -0.61, -0.61, -1.33, -1.13, -1.27, -1.27, -1.11, -0.57, 0.0, 0.0, 0.63, 1.27, 1.27, 1.4, 2.21, 1.9, 2.24, 2.24, 2.24, 2.68, 2.68, 3.13, 2.54, 3.6, 2.23, 1.4, 0.0, 0.0, 1.9, 2.53, 2.53, 1.9, 1.9, 1.58, 1.79, 2.53, 4.74, 6.95, 7.54, 6.97, 3.12, -1.51, -7.93, -13.23, -12.52, -9.8, -7.12, -3.82, -1.54, 0.0, -0.45, -0.6, -0.45, 0.0, -0.63, -1.9, -3.32, -7.92, -9.33, -7.89, -5.94, -6.42, -6.64, -5.44, -5.44, 0.54, 0.54, 1.2, 1.2, 1.2, 1.61, 1.2, 1.2, 1.2, 1.2, 1.0, 0.71, 0.54, 0.54, 0.0, 0.0, 0.0, 0.0, 0.0, 0.0, 0.0, 0.0, 0.0, 0.0, 0.0, 0.0, 0.0, 0.0, 0.0, 0.0, 0.0, 0.0, 0.0, 0.0, -0.59, -0.59, -0.57, -0.57, -0.63, -0.63, -0.55, 0.0, 0.0, 0.0, 0.57, 0.59, 0.0, 0.0, 0.0, 1.58, 1.79, 2.24, 2.24, 2.68, 3.13, 3.58, 2.6, 3.04, 2.4, 0.0, -0.0, 1.24, 1.24, 1.26, 2.23, 2.54, 2.0, 1.34, 2.24, 4.92, 7.97, 10.23, 9.54, 5.51, -6.08, -11.73, -14.93, -15.46, -14.1, -11.42, -7.73, -4.4, -1.44, 0.0, 0.0, 0.0, -0.45, -1.86, -4.12, -4.11, -5.86, -4.73, -2.6, -1.7, -2.6, -3.39, -3.32, -3.32, 0.0, 0.0, 0.54, 1.2, 1.61, 1.61, 1.61, 1.2, 1.2, 1.2, 1.2, 0.65, 0.65, 0.65, 0.65, 0.0, 0.0, 0.0, 0.0, 0.0, 0.0, 0.0, 0.0, 0.0, 0.0, 0.0, 0.0, 0.0, 0.0, 0.0, 0.0, 0.0, 0.0, 0.0, 0.0, 0.0, 0.0, -0.55, -0.55, -0.55, 0.0, 0.0, 0.0, 0.0, 0.57, 0.66, 0.0, 0.0, 0.0, 0.0, 1.79, 2.24, 2.24, 2.68, 3.13, 3.58, 2.24, 2.68, 1.79, 0.6, 0.54, 0.71, 1.26, 1.6, 2.12, 3.95, 3.13, 1.34, 1.79, 2.12, 2.23, 2.54, 3.01, 2.09, -1.79, -8.05, -12.18, -14.35, -14.79, -14.27, -11.37, -7.9, -4.6, -2.11, -1.88, -1.86, -1.9, -3.49, -4.81, -2.21, -2.53, -0.6, 0.0, 0.0, -0.89, -2.4, -3.32, -3.32, 0.0, 0.0, 0.65, 1.2, 1.61, 1.88, 1.88, 1.88, 1.2, 1.2, 1.2, 1.2, 0.65, 0.65, 0.65, 0.65, 0.0, 0.0, 0.0, 0.0, 0.0, 0.0, 0.0, 0.0, 0.0, 0.0, 0.0, 0.0, 0.0, 0.0, 0.0, 0.0, 0.0, 0.0, 0.0, 0.0, 0.0, 0.0, 0.0, 0.0, 0.0, 0.0, 0.0, 0.0, 0.0, 0.0, 0.0, 0.0, 0.0, 0.0, 0.0, 1.58, 2.24, 2.68, 3.13, 3.13, 1.79, 1.79, 1.79, 1.34, 0.63, -0.0, -0.0, 1.79, 2.6, 4.47, 4.02, 4.77, 2.17, 1.34, -0.8, -3.25, -0.76, 0.76, 1.08, -1.79, -6.71, -10.04, -12.3, -13.0, -12.92, -10.26, -7.61, -5.64, -5.43, -5.05, -5.43, -4.4, -1.7, -0.0, 0.0, 0.63, 0.4, 0.0, -0.6, -2.4, -2.91, -2.91, 0.0, 0.0, 0.54, 1.2, 1.2, 1.61, 1.88, 1.88, 1.4, 1.2, 1.2, 1.2, 1.2, 0.53, 0.53, 0.53, 0.53, 0.0, 0.0, 0.0, 0.0, 0.0, 0.0, 0.0, 0.0, 0.0, 0.0, 0.0, 0.0, 0.0, 0.0, 0.0, 0.0, 0.0, 0.0, 0.0, 0.0, 0.0, 0.0, 0.0, 0.0, 0.0, 0.0, 0.0, 0.0, 0.0, 0.0, 0.0, 0.51, 0.51, 0.61, 1.6, 1.9, 2.68, 2.68, 2.68, 2.68, 0.89, 0.0, 0.0, 0.0, 0.0, 0.0, 2.24, 3.13, 4.02, 4.02, 3.13, 3.13, -1.79, -4.66, -5.49, -2.18, 1.51, 3.16, 2.99, 0.0, -2.91, -7.4, -9.83, -11.8, -11.57, -9.78, -8.23, -6.7, -5.6, -4.24, -1.79, -0.0, -0.0, -0.0, 0.0, 0.0, -0.57, -1.0, -1.9, -1.86, -1.86, 0.0, 0.0, 0.54, 1.2, 1.61, 1.61, 1.61, 1.88, 1.4, 1.4, 1.2, 1.2, 1.16, 0.61, 0.61, 0.61, 0.61, 0.61, 0.0, 0.0, 0.0, 0.0, 0.0, 0.0, 0.0, 0.0, 0.0, 0.0, 0.0, 0.0, 0.0, 0.0, 0.0, 0.0, 0.0, 0.0, 0.0, 0.0, 0.0, 0.0, 0.0, 0.0, 0.0, 0.0, 0.0, 0.0, 0.0, 0.0, 0.0, 0.0, 0.57, 0.59, 0.0, 1.9, 1.58, 2.24, 2.24, 1.79, 0.0, 0.0, 0.0, 0.0, 0.8, 2.24, 2.68, 4.02, 4.02, 3.13, 1.7, -1.34, -3.51, -4.47, -1.63, 0.78, 3.83, 7.04, 6.19, -0.7, -5.43, -7.71, -10.75, -11.57, -10.65, -8.49, -5.2, -3.32, -2.68, -0.0, -0.0, -0.0, -0.6, -0.89, -1.26, -1.24, -1.2, -1.2, -1.24, -1.24, 0.0, 0.0, 0.71, 1.49, 1.9, 1.9, 1.61, 1.88, 1.4, 1.4, 1.4, 1.16, 1.16, 1.16, 0.61, 0.61, 0.61, 0.61, 0.61, 0.0, 0.0, 0.0, 0.0, 0.0, 0.0, 0.0, 0.0, 0.0, 0.0, 0.0, 0.0, 0.0, 0.0, 0.0, 0.0, 0.0, 0.0, 0.0, 0.0, 0.0, 0.0, 0.0, 0.0, 0.0, 0.0, 0.0, 0.0, 0.0, 0.0, 0.0, 0.0, 0.0, 0.0, 0.65, 1.0, 1.26, 1.79, 2.24, 0.89, 0.0, 0.0, 0.0, 1.24, 2.6, 4.47, 3.58, 3.13, 1.34, 0.63, -1.34, -2.8, -3.48, -2.99, -0.73, 3.11, 6.28, 6.31, 3.42, -3.64, -8.01, -10.02, -11.95, -10.65, -8.0, -5.2, -3.97, -1.7, -0.0, -0.0, -0.0, -1.2, -1.79, -2.12, -2.4, -1.9, -1.61, -1.61, -1.61, 0.57, 0.57, 1.24, 1.9, 1.9, 1.61, 1.61, 1.61, 1.61, 1.2, 1.4, 1.16, 1.16, 1.16, 1.16, 0.61, 0.61, 0.61, 0.51, 0.59, 0.0, 0.0, 0.0, 0.0, 0.0, 0.0, 0.0, 0.0, 0.0, 0.0, 0.0, 0.0, 0.0, 0.0, 0.0, 0.0, 0.0, 0.0, 0.0, 0.0, 0.0, 0.0, 0.0, 0.0, 0.0, 0.0, 0.0, 0.0, 0.0, 0.0, 0.0, 0.0, 0.0, 0.0, 0.0, 0.0, 0.0, 1.79, 1.26, -0.0, -0.0, 0.0, 1.2, 2.12, 3.04, 4.34, 1.79, 0.45, 0.0, -0.89, -1.86, -2.07, -3.64, -2.88, -0.69, 0.0, 0.0, 1.51, 0.0, -4.47, -8.46, -12.3, -11.62, -8.25, -6.36, -3.58, -1.58, -0.6, -0.89, -0.89, -0.89, -1.34, -2.12, -2.6, -2.4, -2.5, -2.21, -2.21, 0.57, 0.57, 1.24, 1.9, 1.9, 1.61, 1.61, 1.61, 1.61, 1.2, 1.2, 1.16, 1.16, 1.16, 1.16, 1.16, 0.61, 0.51, 0.59, 0.59, 0.0, 0.0, 0.0, 0.0, 0.0, 0.0, 0.0, 0.0, 0.0, 0.0, 0.0, 0.0, 0.0, 0.0, 0.0, 0.0, 0.0, 0.0, 0.0, 0.0, 0.0, 0.0, 0.0, 0.0, 0.0, 0.59, 0.0, 0.0, 0.0, 0.0, 0.0, 0.0, 0.0, 0.0, 0.0, 0.0, 0.0, 0.0, 1.26, 0.6, -0.0, -0.0, 0.0, 0.89, 3.13, 3.13, 2.63, 0.89, -0.0, -0.89, -1.26, -1.55, -2.26, -5.0, -8.27, -9.22, -7.11, -3.78, 0.0, -1.86, -4.02, -11.56, -11.82, -9.6, -4.52, -2.24, -0.6, -1.2, -1.79, -1.7, -1.34, -0.45, -0.89, -2.24, -2.6, -2.4, -2.21, -2.21, 1.24, 1.24, 1.24, 1.9, 1.61, 1.61, 1.61, 1.61, 1.2, 1.2, 1.2, 1.16, 1.16, 1.16, 1.16, 1.16, 0.59, 0.59, 0.59, 0.59, 0.59, 0.0, 0.0, 0.0, 0.0, 0.0, 0.0, 0.0, 0.0, 0.0, 0.0, 0.0, 0.0, 0.0, 0.55, 0.54, 0.0, 0.0, 0.0, 0.0, 0.0, 0.0, 0.0, 0.0, 0.0, 0.0, 0.0, -0.61, -0.61, -0.61, -0.61, -0.53, 0.0, 0.0, 0.0, 0.0, 0.0, 0.0, 0.0, -0.0, -0.0, 0.0, 0.0, 0.89, 4.02, 2.68, 2.68, 1.6, 0.0, -1.34, -1.86, -2.2, -0.74, -2.95, -8.29, -11.29, -10.89, -8.46, -3.78, -1.13, -2.91, -9.86, -10.62, -9.35, -6.95, -2.4, -1.2, -1.2, -1.7, -1.2, -0.45, 0.0, 0.63, -1.34, -1.7, -2.0, -1.9, -1.9, 1.24, 1.24, 1.49, 1.61, 1.61, 1.61, 1.61, 1.2, 1.2, 1.2, 1.2, 1.2, 1.16, 1.16, 1.16, 1.16, 1.13, 0.59, 0.59, 0.59, 0.59, 0.59, 0.59, 0.0, 0.0, 0.0, 0.0, 0.0, 0.0, 0.0, 0.0, 0.0, 0.0, 0.0, 0.0, 0.0, 0.0, 0.0, 0.0, 0.0, 0.0, 0.0, 0.0, 0.0, 0.0, -0.79, 0.0, 0.0, 0.0, 0.0, -0.61, -0.65, -0.65, -0.54, -0.54, -0.54, -0.71, 0.0, 0.0, 0.0, -0.0, -0.45, 0.0, 1.79, 2.24, 1.79, 1.2, 0.0, 0.0, -1.4, -2.8, -2.4, -0.72, 0.78, -1.51, -7.7, -11.08, -9.22, -6.97, -3.09, -2.53, -4.3, -8.22, -8.15, -7.61, -5.29, -3.49, -1.61, -0.54, -0.57, 0.0, 0.89, 1.2, 1.0, -0.57, -0.54, -0.53, -0.53, 1.2, 1.2, 1.2, 1.61, 1.61, 1.61, 1.61, 1.2, 1.2, 1.2, 1.2, 1.2, 1.2, 1.16, 1.16, 1.16, 1.13, 0.59, 0.59, 0.59, 0.59, 0.59, 0.59, 0.59, 0.0, 0.0, 0.0, 0.0, 0.0, 0.0, 0.0, 0.0, 0.0, 0.0, 0.0, 0.0, 0.0, 0.0, 0.0, 0.0, 0.0, 0.0, 0.0, 0.0, 0.0, -0.57, -0.57, 0.0, 0.0, 0.0, -0.61, -0.61, -0.65, -0.54, -0.71, -0.54, -0.54, -0.71, -0.8, -0.95, -0.89, -1.34, 0.0, 0.45, 0.89, 1.34, 0.89, -1.34, -1.4, -1.99, -1.86, -1.79, -1.6, 0.0, 0.76, -3.11, -8.61, -7.64, -6.95, -5.62, -3.47, -2.21, -2.68, -4.71, -5.06, -5.06, -4.12, -3.04, -1.33, 0.0, 0.0, 0.95, 0.95, 1.24, 0.53, 0.0, 0.0, 0.0, 1.16, 1.16, 1.16, 1.4, 1.2, 1.2, 1.2, 1.2, 1.2, 1.0, 1.0, 1.2, 1.2, 1.2, 1.16, 1.16, 1.13, 0.59, 0.59, 0.59, 0.59, 0.59, 0.59, 0.59, 0.59, 0.0, 0.0, 0.0, 0.0, 0.0, 0.0, 0.0, 0.0, 0.0, 0.0, 0.0, 0.0, 0.0, 0.0, 0.0, 0.0, 0.0, 0.0, 0.0, 0.0, 0.0, 0.0, 0.0, 0.0, 0.0, -0.59, -0.61, -0.61, -0.65, -0.54, -0.71, -0.54, -0.71, -0.71, -0.57, -1.26, -0.95, 0.0, 0.0, 1.79, 2.97, 1.2, 0.0, -1.9, -1.2, 0.0, -0.0, -2.68, -4.65, -3.2, -1.66, -3.11, -2.63, -3.07, -3.47, -2.83, -0.61, 0.0, -0.59, -1.65, -2.29, -2.29, -2.29, -0.59, 0.0, 0.61, 1.24, 1.26, 1.0, 0.61, 0.7, 0.66, 0.66, 1.13, 1.13, 1.16, 1.16, 1.4, 1.2, 1.2, 1.2, 1.2, 1.0, 1.0, 0.54, 0.65, 1.2, 1.16, 1.16, 0.61, 0.59, 0.59, 0.59, 0.59, 0.59, 0.59, 0.59, 0.59, 0.59, 0.0, 0.0, 0.0, 0.0, 0.59, 0.0, 0.0, 0.0, 0.0, 0.0, 0.0, 0.0, 0.0, 0.0, 0.0, 0.0, 0.0, 0.0, 0.0, 0.0, 0.0, 0.0, 0.0, -0.57, -0.57, -0.59, -0.61, -0.61, -1.2, -0.65, -0.54, -0.65, -0.65, -0.65, -1.9, -1.58, 0.0, 1.79, 2.24, 2.6, 1.26, 0.63, -0.45, -0.89, 0.0, 0.0, -2.23, -8.03, -7.7, -3.21, 0.0, 0.6, 0.0, -1.13, -2.0, -1.36, -0.71, 0.0, 0.0, 0.0, -0.59, -0.61, 0.0, 0.63, 1.27, 1.49, 1.4, 0.65, 0.0, 0.66, 0.63, 0.63, 1.27, 1.27, 1.13, 1.33, 1.16, 1.2, 1.2, 1.2, 1.2, 0.54, 0.54, 0.54, 0.54, 0.65, 0.65, 0.61, 0.61, 0.59, 0.59, 0.59, 0.59, 0.59, 0.59, 0.59, 0.59, 0.0, 0.0, 0.0, 0.0, 0.0, 0.0, 0.0, 0.0, 0.0, 0.0, 0.0, 0.0, 0.0, 0.0, 0.0, 0.0, 0.0, 0.0, 0.0, 0.0, 0.0, 0.0, 0.0, -0.57, -0.57, -0.57, -0.59, -0.59, -1.16, -1.16, -1.2, -1.2, -1.2, -0.65, -0.61, -1.2, -1.2, 0.0, 1.79, 1.9, 1.6, 0.8, -0.0, -0.0, -0.0, 0.0, 0.0, -2.16, -5.63, -7.01, -2.28, 3.12, 5.25, 3.11, 0.0, -3.44, -3.51, -2.06, -0.65, 0.0, 0.0, 0.0, 0.0, 0.73, 1.4, 1.36, 1.47, 1.47, 0.73, 0.0, 0.0, 0.0, 0.0, 0.57, 0.57, 1.27, 1.13, 1.16, 1.16, 1.2, 1.2, 1.2, 0.54, 0.54, 0.54, 0.54, 0.65, 0.65, 0.53, 0.61, 0.51, 0.59, 0.59, 0.59, 0.59, 0.59, 0.59, 0.59, 0.0, 0.0, 0.0, 0.0, 0.0, 0.0, 0.0, 0.0, 0.0, 0.0, 0.0, 0.0, 0.0, 0.0, 0.0, 0.0, 0.0, 0.0, 0.0, 0.0, 0.0, -0.57, -0.57, -0.57, -0.57, -0.57, -0.66, -0.59, -1.33, -1.16, -1.4, -1.2, -1.2, -1.4, -1.4, -1.16, -1.2, 0.0, 0.0, 0.95, -0.0, 1.0, -0.0, -0.0, -0.0, -0.0, 0.0, 0.0, -0.79, -3.04, -1.6, 1.51, 3.83, 3.16, 0.0, -3.58, -4.22, -2.53, -0.59, 0.0, 0.0, 0.0, 0.0, 0.0, 0.71, 0.73, 0.74, 0.78, 0.0, 0.0, 0.0, 0.0, 0.0, 0.57, 0.57, 0.57, 1.13, 1.13, 1.16, 1.16, 1.2, 0.65, 0.65, 0.65, 0.54, 0.65, 0.65, 0.65, 0.53, 0.61, 0.61, 0.51, 0.59, 0.59, 0.59, 0.59, 0.59, 0.59, 0.59, 0.59, 0.0, 0.0, 0.0, 0.0, 0.0, 0.0, 0.0, 0.0, 0.0, 0.0, 0.0, 0.0, 0.0, 0.0, 0.0, 0.0, 0.0, 0.0, 0.0, -0.57, -0.57, -1.11, -1.11, -1.27, -1.13, -1.13, -1.33, -1.16, -1.16, -1.4, -1.4, -1.4, -1.4, -1.4, -1.24, 0.0, 0.0, -0.0, -0.0, -0.0, 1.0, 1.0, -0.0, -0.0, 0.89, 1.49, 1.11, -0.76, -3.11, -3.07, -3.1, -3.11, -2.99, -2.83, -2.11, -2.12, -1.24, -0.59, -0.67, -0.69, -0.74, 0.0, 0.0, 0.0, 0.0, 0.0, 0.0, 0.0, 0.0, -0.7, -0.73, 0.55, 0.55, 0.57, 1.11, 1.13, 1.16, 1.16, 1.16, 0.65, 0.65, 0.65, 0.65, 0.65, 0.65, 0.65, 0.53, 0.61, 0.61, 0.61, 0.51, 0.59, 0.59, 0.59, 0.59, 0.59, 0.59, 0.59, 0.59, 0.0, 0.0, 0.0, 0.0, 0.0, 0.0, 0.0, 0.0, 0.0, 0.0, 0.0, 0.0, 0.0, 0.0, 0.0, 0.0, 0.0, 0.0, -0.57, -1.11, -1.27, -1.13, -1.13, -1.13, -1.13, -1.33, -1.16, -1.16, -1.4, -1.61, -1.88, -1.88, -1.88, -1.24, -2.24, 0.0, -0.89, 0.0, -0.0, -0.0, -0.0, -0.0, -0.0, -0.0, 0.8, 0.76, 0.0, -1.51, -4.8, -7.01, -7.05, -5.11, -2.05, -0.65, -1.2, -1.6, -1.24, -1.27, -1.32, -0.76, 0.0, 0.0, 0.0, 0.0, 0.0, 0.0, 0.0, -0.74, -0.64, -0.7, 0.55, 0.55, 0.57, 0.57, 1.13, 1.13, 1.16, 1.16, 0.61, 0.65, 0.53, 0.65, 0.65, 0.65, 0.53, 0.53, 0.53, 0.61, 0.61, 0.61, 0.51, 0.59, 0.59, 0.59, 0.59, 0.59, 0.59, 0.59, 0.59, 0.0, 0.0, 0.0, 0.0, 0.0, 0.0, 0.0, 0.0, 0.0, 0.0, 0.0, 0.0, 0.0, 0.0, 0.0, 0.0, 0.0, -0.57, -1.13, -1.13, -1.13, -1.13, -1.33, -1.33, -1.16, -1.16, -1.16, -1.88, -1.61, -1.88, -1.88, -1.88, -1.9, -1.26, -1.79, -1.79, 0.0, -0.0, -0.0, -0.0, 0.0, -0.0, -0.6, -1.6, -1.0, 2.24, 3.04, 0.0, -5.4, -6.9, -4.95, -2.02, -0.65, -0.7, -0.63, -0.89, -0.71, -0.59, 0.0, 0.0, 0.0, 0.0, 0.0, 0.0, 0.0, -0.8, -0.71, -0.69, -0.64, 0.55, 0.55, 0.63, 1.11, 1.11, 1.13, 1.13, 1.16, 0.61, 0.61, 0.61, 0.53, 0.53, 0.53, 0.53, 0.53, 0.53, 0.53, 0.61, 0.61, 0.51, 0.51, 0.51, 0.51, 0.51, 0.51, 0.51, 0.51, 0.59, 0.0, 0.0, 0.0, 0.0, 0.0, 0.0, 0.0, 0.0, 0.0, 0.0, 0.0, 0.0, 0.0, -0.59, -0.61, -1.33, -0.88, -0.66, -1.33, -1.16, -1.33, -1.33, -1.33, -1.16, -1.16, -1.61, -1.88, -1.88, -1.84, -2.23, -2.53, -2.53, -2.21, -1.9, -2.24, 0.0, 0.0, -0.0, -0.0, -0.0, 0.0, -0.0, -1.6, -2.12, -1.4, 0.0, 4.47, 4.7, 0.0, -3.78, -3.72, -1.33, 0.0, 0.0, 0.0, 0.0, 0.0, 0.0, 0.0, 0.0, 0.0, 0.0, 0.0, 0.0, -0.8, -0.8, -0.76, -0.74, -0.74, 0.55, 0.55, 0.63, 1.11, 1.11, 1.27, 1.13, 1.13, 0.59, 0.61, 0.61, 0.61, 0.53, 0.53, 0.53, 0.53, 0.53, 0.53, 0.61, 0.61, 0.61, 0.61, 0.61, 0.61, 0.61, 0.61, 0.61, 0.51, 0.51, 0.0, 0.0, 0.0, 0.0, 0.0, 0.0, 0.0, 0.0, 0.0, 0.0, 0.0, 0.0, -0.59, -0.59, -0.59, -1.13, -1.27, -0.59, -0.59, -1.33, -1.33, -1.33, -1.33, -1.16, -1.61, -1.88, -1.88, -2.23, -2.23, -2.23, -2.23, -2.53, -2.21, -1.9, -1.58, 0.0, 0.0, 0.0, 0.0, 0.89, -0.0, -0.63, -2.12, -2.68, -2.5, -1.98, -1.09, 1.57, 3.97, 1.51, -0.54, -0.89, 0.0, 0.0, 0.0, -0.54, -0.57, -0.65, -0.59, -0.57, -0.67, -0.72, -0.78, -0.69, -1.45, -0.79, -0.74, -0.74, -0.74, 0.55, 0.55, 1.08, 1.23, 1.11, 1.11, 1.27, 1.13, 1.13, 0.51, 0.61, 0.61, 0.61, 0.61, 0.53, 0.53, 0.53, 0.53, 0.61, 0.61, 0.61, 0.61, 0.61, 0.61, 0.61, 0.61, 0.61, 0.0, 0.0, 0.0, 0.0, 0.0, 0.0, 0.0, 0.0, 0.0, 0.0, 0.0, 0.0, -0.57, -0.57, -0.66, -0.59, -0.59, -1.13, -1.13, -0.59, -0.59, -1.13, -1.13, -1.13, -1.33, -1.33, -1.61, -1.61, -1.88, -2.51, -2.51, -2.51, -2.23, -2.53, -2.53, -2.5, -1.9, -1.79, 0.0, 0.0, 1.79, 1.26, 0.63, -0.63, -2.17, -3.13, -3.32, -4.46, -5.3, -2.37, 1.58, 5.51, 4.61, 3.8, 2.75, 0.71, -1.28, -2.11, -1.84, -1.84, -1.8, -1.76, -2.04, -1.41, -1.41, -1.41, -1.63, -1.45, -1.45, -1.45, -1.45, 0.55, 0.55, 1.08, 1.08, 1.23, 1.11, 1.11, 1.11, 1.13, 0.59, 0.51, 0.61, 0.61, 0.61, 0.61, 0.61, 0.61, 0.61, 0.61, 0.61, 0.61, 0.61, 0.61, 0.61, 0.61, 0.0, 0.0, 0.0, 0.0, 0.0, 0.0, 0.0, 0.0, 0.0, 0.0, 0.0, 0.0, 0.0, -0.57, -0.57, -0.57, -0.66, -0.59, -1.13, -1.13, -1.13, -1.13, -1.27, -1.27, -1.27, -1.13, -1.33, -1.84, -1.84, -1.84, -2.23, -2.51, -2.51, -2.51, -2.51, -2.53, -2.53, -2.21, -2.23, -1.9, 0.0, 0.0, 1.34, 1.26, -0.0, -0.63, -2.24, -3.13, -3.74, -3.84, -2.79, -1.52, 0.74, 4.85, 9.43, 11.53, 9.99, 5.58, 0.0, -3.64, -4.73, -3.79, -3.15, -4.07, -3.32, -4.44, -2.8, -3.0, -3.0, -2.2, -2.2, -2.2, -2.2, 1.19, 1.19, 1.08, 1.08, 1.08, 1.08, 1.23, 1.11, 1.13, 1.13, 0.59, 0.51, 0.61, 0.61, 0.61, 0.61, 0.61, 0.61, 0.61, 0.61, 0.61, 0.61, 0.61, 0.61, 0.0, 0.0, 0.0, 0.0, 0.0, 0.0, 0.0, 0.0, 0.0, 0.0, 0.0, 0.0, 0.0, 0.0, -0.59, -0.66, -0.66, -0.66, -0.59, -1.13, -1.13, -1.13, -1.13, -1.27, -1.27, -1.27, -1.8, -1.6, -1.84, -1.84, -1.84, -2.23, -2.51, -2.51, -2.84, -2.84, -2.53, -2.53, -2.53, -2.5, -1.86, 0.0, 0.0, 0.89, -0.0, -0.0, -0.63, -1.79, -2.68, -2.91, -1.9, 0.0, 0.65, 1.45, 4.6, 8.46, 11.7, 11.84, 9.0, 4.88, -0.72, -5.94, -6.8, -6.98, -7.02, -7.36, -6.17, -4.46, -4.56, -3.79, -3.9, -3.0, -3.0, -3.0, 1.19, 1.19, 1.19, 1.19, 1.19, 1.08, 1.23, 1.11, 1.27, 1.13, 0.59, 0.59, 0.51, 0.61, 0.61, 0.61, 0.61, 0.61, 0.61, 0.53, 0.53, 0.53, 0.53, 0.0, 0.0, 0.0, 0.0, 0.0, 0.0, 0.0, 0.0, 0.0, 0.0, 0.0, 0.0, 0.0, 0.0, -0.59, -0.59, -0.59, -0.59, -0.59, -1.13, -1.13, -1.13, -1.13, -1.13, -1.13, -1.8, -1.8, -1.8, -1.6, -1.84, -1.84, -1.84, -2.51, -2.23, -2.23, -2.84, -2.84, -2.79, -2.53, -2.53, -2.21, -1.9, -1.58, 0.0, 0.0, -0.0, -0.0, 0.0, -1.2, -1.34, -1.34, 0.0, 0.63, 1.58, 3.79, 6.06, 7.28, 8.27, 8.74, 8.82, 9.6, 6.32, -2.0, -8.06, -9.05, -8.03, -6.39, -5.69, -5.69, -5.37, -4.65, -4.65, -4.65, -4.65, -4.65, 1.19, 1.19, 1.19, 1.19, 1.19, 1.08, 1.23, 1.11, 1.11, 1.27, 0.59, 0.59, 0.59, 0.51, 0.61, 0.61, 0.61, 0.61, 0.61, 0.53, 0.53, 0.0, 0.0, 0.0, 0.0, 0.0, 0.0, 0.0, 0.0, 0.0, 0.0, 0.0, 0.0, 0.0, 0.0, 0.0, 0.0, -0.59, -0.59, -0.59, -0.59, -0.59, -1.13, -1.13, -1.13, -1.13, -1.13, -1.6, -1.6, -1.8, -1.6, -1.84, -1.84, -1.84, -2.23, -2.51, -2.23, -2.23, -2.84, -2.84, -2.79, -2.53, -2.21, -2.21, -1.9, -1.9, 0.0, -0.0, -0.0, -0.0, -0.0, -0.6, -0.6, -0.0, -0.0, 0.89, 2.12, 3.74, 6.4, 6.64, 5.59, 6.1, 8.83, 10.9, 10.27, 4.1, -4.12, -8.24, -5.36, -4.12, -3.49, -3.14, -2.53, -2.15, -2.53, -2.84, -2.84, -2.84, 1.19, 1.19, 1.19, 1.19, 1.19, 1.08, 1.23, 1.11, 1.11, 1.27, 1.13, 0.59, 0.59, 0.59, 0.51, 0.61, 0.61, 0.61, 0.61, 0.53, 0.0, 0.0, 0.0, 0.0, 0.0, 0.0, 0.0, 0.0, 0.0, 0.0, 0.0, 0.0, 0.0, 0.0, 0.0, 0.0, -0.59, -0.59, -0.59, -0.59, -0.59, -1.13, -1.13, -1.13, -1.13, -1.13, -1.6, -1.6, -1.6, -1.6, -1.84, -1.84, -1.84, -1.84, -2.51, -2.51, -2.23, -2.48, -3.16, -2.84, -3.14, -2.79, -2.53, -2.21, -2.5, -2.0, -1.34, -0.0, -0.0, 0.57, -0.0, -0.0, -0.71, -0.0, -0.0, 0.89, 2.24, 3.13, 3.97, 5.05, 4.36, 5.13, 7.54, 9.31, 8.01, 6.43, -4.47, -4.92, -4.0, -2.84, -2.53, -1.58, -0.6, 0.0, -0.63, -0.63, -0.63, -0.63, 1.19, 1.19, 1.19, 1.19, 1.19, 1.08, 1.23, 1.11, 1.11, 1.11, 0.66, 0.59, 0.59, 0.59, 0.59, 0.61, 0.61, 0.61, 0.61, 0.0, 0.0, 0.0, 0.0, 0.0, 0.0, 0.0, 0.0, 0.0, 0.0, 0.0, 0.0, 0.0, 0.0, 0.0, 0.0, 0.0, -0.59, -0.59, -0.59, -0.59, -0.59, -1.13, -1.13, -1.13, -1.13, -1.13, -1.6, -1.6, -1.84, -1.84, -1.84, -1.84, -1.84, -2.23, -2.51, -2.51, -2.51, -2.86, -3.16, -2.84, -3.14, -2.79, -2.53, -2.5, -2.5, -2.4, -1.79, -0.85, -0.0, -0.0, -0.0, 0.4, -0.0, -0.57, -0.0, 0.63, 1.79, 2.68, 3.13, 2.86, 3.79, 4.01, 4.46, 4.55, 3.86, 0.64, -2.15, -4.27, -4.02, -2.79, -1.84, -1.2, 0.0, 0.45, 0.32, 0.6, 0.6, 0.6, 1.19, 1.19, 1.19, 1.19, 1.08, 1.23, 1.23, 1.11, 1.11, 1.11, 0.57, 0.59, 0.59, 0.59, 0.59, 0.51, 0.61, 0.61, 0.0, 0.0, 0.0, 0.0, 0.0, 0.0, 0.0, 0.0, 0.0, 0.0, 0.0, 0.0, 0.0, 0.0, 0.0, 0.0, 0.0, 0.0, -0.59, -0.59, -0.59, -0.59, -0.59, -1.13, -1.13, -1.13, -1.13, -1.6, -1.84, -1.84, -1.84, -1.84, -1.84, -1.84, -2.23, -2.51, -2.51, -2.51, -2.84, -2.86, -3.16, -2.84, -3.14, -2.79, -2.79, -3.07, -3.07, -2.4, -2.24, -1.58, -1.4, -1.2, -0.54, -0.0, 0.0, 0.0, -0.0, -0.0, 1.2, 1.7, 2.24, 2.23, 2.53, 2.79, 2.11, 0.73, -1.41, 0.0, -0.0, -2.51, -3.07, -2.24, -2.21, -2.23, -1.26, 0.0, -0.0, -0.0, -0.0, -0.0, 1.19, 1.19, 1.19, 1.19, 1.08, 1.23, 1.23, 1.11, 1.11, 1.11, 0.57, 0.59, 0.59, 0.59, 0.59, 0.51, 0.61, 0.61, 0.0, 0.0, 0.0, 0.0, 0.0, 0.0, 0.0, 0.0, 0.0, 0.0, 0.0, 0.0, 0.0, 0.0, 0.0, 0.0, 0.0, -0.59, -0.59, -0.59, -0.59, -0.59, -1.13, -1.13, -1.13, -1.13, -1.13, -1.6, -1.84, -1.84, -1.84, -1.84, -1.84, -1.84, -2.23, -2.51, -2.51, -2.84, -2.84, -3.16, -3.16, -2.84, -3.14, -3.14, -3.07, -3.07, -3.07, -2.91, -2.68, -1.86, -2.53, -2.15, -1.88, -1.86, -0.89, -0.95, 0.0, -0.0, 1.2, 1.34, 1.2, 1.26, 1.9, 1.88, 1.6, -0.79, -2.85, 0.0, 2.91, 1.58, -0.0, -0.89, -1.86, -2.15, -1.79, -1.2, -0.6, -0.71, -0.71, -0.71, 1.19, 1.19, 1.19, 1.08, 1.08, 1.23, 1.23, 1.11, 1.11, 0.57, 0.57, 0.66, 0.59, 0.59, 0.59, 0.59, 0.61, 0.61, 0.0, 0.0, 0.0, 0.0, 0.0, 0.0, 0.0, 0.0, 0.0, 0.0, 0.0, 0.0, 0.0, 0.0, 0.0, 0.0, -0.51, -0.59, -0.59, -0.59, -0.59, -1.13, -1.13, -1.13, -1.13, -1.13, -1.13, -1.84, -1.84, -1.84, -1.84, -1.84, -1.84, -2.23, -2.51, -2.51, -2.84, -2.84, -3.16, -3.16, -3.16, -2.84, -3.35, -3.6, -3.07, -3.45, -3.6, -3.32, -3.07, -3.58, -2.15, -2.21, -2.5, -2.91, -2.6, -2.24, -1.34, -0.0, -0.0, 0.0, 0.0, 0.6, 0.57, 1.2, 0.76, 0.0, 0.0, 0.66, 4.0, 3.32, 1.86, -0.0, -0.63, -0.89, -0.63, -1.26, -0.71, -0.65, -0.65, -0.65, 1.19, 1.19, 1.08, 1.08, 1.23, 1.23, 1.23, 1.11, 0.57, 0.57, 0.57, 0.59, 0.59, 0.59, 0.59, 0.59, 0.61, 0.61, 0.0, 0.0, 0.0, 0.0, 0.0, 0.0, 0.0, 0.0, 0.0, 0.0, 0.0, 0.0, 0.0, 0.0, 0.0, 0.0, -0.61, -0.51, -0.59, -0.59, -0.59, -1.13, -1.13, -1.13, -1.13, -1.13, -1.84, -1.84, -1.84, -1.84, -1.84, -1.84, -2.23, -2.23, -2.51, -2.84, -2.84, -3.16, -3.16, -3.16, -3.43, -3.43, -3.35, -3.6, -3.6, -3.6, -3.6, -3.39, -3.53, -3.13, -1.79, -1.49, -1.86, -2.5, -2.91, -2.4, -2.12, -1.49, -1.2, -1.34, -1.26, -0.6, 0.0, 0.0, 0.74, 2.32, 2.31, 1.27, 2.53, 3.49, 2.53, -0.0, -0.53, -0.0, -0.0, -0.0, -0.71, -0.61, -0.61, -0.61, 1.08, 1.08, 1.08, 1.08, 1.23, 1.23, 1.11, 1.11, 0.57, 0.57, 0.57, 0.59, 0.59, 0.59, 0.59, 0.59, 0.61, 0.61, 0.0, 0.0, 0.0, 0.0, 0.0, 0.0, 0.0, 0.0, 0.0, 0.0, 0.0, 0.0, 0.0, 0.0, 0.0, -0.61, -0.61, -0.61, -0.59, -0.59, -1.13, -1.13, -1.13, -1.13, -1.13, -1.33, -1.84, -1.84, -1.84, -1.84, -1.84, -2.23, -2.23, -2.23, -2.51, -2.84, -3.16, -3.16, -3.43, -3.43, -3.43, -3.72, -3.35, -3.6, -3.6, -3.6, -3.6, -3.82, -3.53, -3.53, -3.07, -0.89, -0.95, -1.9, -2.5, -2.5, -1.24, -0.95, -1.7, -2.24, -2.6, -1.86, -1.26, -0.61, -0.74, 0.0, 2.36, 1.52, 1.58, 4.07, 2.51, 0.59, -0.66, -0.0, 0.54, -0.0, -0.0, -0.0, -0.0, -0.0, 1.08, 1.08, 1.08, 1.08, 1.23, 1.23, 0.57, 0.57, 0.57, 0.57, 0.66, 0.59, 0.59, 0.59, 0.59, 0.59, 0.61, 0.61, 0.0, 0.0, 0.0, 0.0, 0.0, 0.0, 0.0, 0.0, 0.0, 0.0, 0.0, 0.0, 0.0, 0.0, -0.53, -0.61, -0.61, -0.61, -0.61, -1.33, -1.33, -1.33, -1.33, -1.33, -1.33, -1.84, -1.84, -1.84, -1.84, -1.84, -2.23, -2.23, -2.23, -2.51, -2.84, -2.84, -3.16, -3.43, -3.43, -3.43, -3.43, -3.72, -3.72, -3.6, -3.6, -3.6, -3.6, -3.6, -3.87, -3.98, -3.32, -1.34, -0.95, -1.9, -2.53, -1.88, -1.0, -0.6, -1.2, -2.68, -3.13, -2.63, -2.8, -2.15, -2.88, -2.35, 0.0, 0.76, 0.0, 2.48, 3.16, 1.84, -0.0, -0.0, -0.0, -0.0, -0.0, -0.0, -0.0, -0.0, 1.08, 1.08, 1.08, 0.55, 0.63, 0.63, 0.57, 0.57, 0.57, 0.57, 0.59, 0.59, 0.59, 0.59, 0.59, 0.59, 0.61, 0.61, 0.0, 0.0, 0.0, 0.0, 0.0, 0.0, 0.0, 0.0, 0.0, 0.0, 0.0, 0.0, 0.0, -0.53, -0.53, -0.61, -0.61, -0.61, -0.61, -1.16, -1.33, -1.33, -1.33, -1.33, -1.84, -1.84, -1.84, -1.84, -1.84, -2.23, -2.23, -2.23, -2.51, -2.84, -2.84, -3.16, -3.43, -3.43, -3.43, -3.43, -3.43, -3.72, -3.72, -4.11, -3.7, -3.7, -3.6, -3.6, -3.87, -3.87, -3.39, -1.79, -1.7, -2.5, -2.53, -1.88, -1.9, -1.86, -1.79, -2.24, -3.13, -3.13, -3.07, -2.86, -3.72, -4.71, -3.04, -0.76, -0.74, -0.0, 2.51, 2.53, 1.13, -0.0, -0.0, -0.0, -0.0, -0.0, -0.0, -0.0, 0.55, 0.55, 0.55, 0.55, 0.63, 0.57, 0.57, 0.57, 0.57, 0.66, 0.59, 0.59, 0.59, 0.59, 0.59, 0.51, 0.61, 0.61, 0.0, 0.0, 0.0, 0.0, 0.0, 0.0, 0.0, 0.0, 0.0, 0.0, 0.0, 0.0, -0.65, -0.65, -0.53, -0.61, -0.61, -0.61, -1.16, -1.16, -1.16, -1.33, -1.33, -1.84, -1.84, -1.84, -1.84, -1.84, -2.23, -2.23, -2.23, -2.51, -2.51, -2.84, -2.84, -3.43, -3.43, -3.43, -3.43, -3.43, -3.43, -3.88, -3.88, -4.11, -4.11, -4.11, -4.11, -4.11, -4.11, -3.87, -3.87, -3.39, -3.13, -2.4, -1.9, -1.24, -1.9, -2.8, -2.4, -2.12, -2.4, -2.68, -2.68, -2.8, -3.72, -4.71, -4.58, -3.1, -1.46, -1.16, 0.71, 1.84, 1.84, 0.59, -0.0, -0.0, -0.0, -0.0, -0.0, -0.0, 0.55, 0.55, 0.55, 0.63, 0.63, 0.57, 0.57, 0.57, 0.57, 0.66, 0.59, 0.59, 0.59, 0.59, 0.59, 0.59, 0.51, 0.0, 0.0, 0.0, 0.0, 0.0, 0.0, 0.0, 0.0, 0.0, 0.0, 0.0, 0.0, -0.65, -0.65, -0.65, -0.65, -0.53, -0.61, -1.16, -1.16, -1.16, -1.16, -1.33, -1.84, -1.84, -1.84, -1.84, -1.84, -2.23, -2.23, -2.23, -2.51, -2.51, -2.84, -2.84, -3.16, -3.43, -3.43, -3.43, -3.43, -3.43, -3.88, -3.88, -3.88, -4.11, -4.11, -4.3, -4.11, -4.11, -4.11, -4.3, -4.3, -3.6, -3.39, -2.24, -0.89, -0.0, -1.26, -2.5, -2.5, -1.86, -2.4, -3.07, -3.13, -3.74, -4.74, -5.49, -5.3, -4.0, -2.35, -0.79, -0.65, -0.0, 1.16, 1.16, 1.13, 0.59, 0.51, -0.0, -0.0, -0.0, 0.55, 0.55, 0.55, 0.63, 0.57, 0.57, 0.57, 0.57, 0.57, 0.57, 0.59, 0.59, 0.59, 0.59, 0.59, 0.59, 0.59, 0.0, 0.0, 0.0, 0.0, 0.0, 0.0, 0.0, 0.0, 0.0, 0.0, -0.65, -0.65, -0.65, -0.65, -0.65, -0.65, -1.2, -1.16, -1.16, -1.16, -1.16, -1.16, -1.61, -1.84, -1.84, -1.84, -1.84, -2.23, -2.23, -2.23, -2.51, -2.51, -2.84, -2.84, -2.84, -3.43, -3.43, -3.43, -3.43, -3.72, -3.88, -4.27, -4.27, -4.27, -4.11, -4.3, -4.3, -4.3, -4.11, -4.11, -4.11, -4.34, -4.11, -3.6, -3.07, -1.26, 0.0, -0.63, -1.9, -2.5, -1.9, -2.4, -3.07, -3.58, -4.4, -5.09, -5.21, -4.8, -3.82, -2.31, -0.76, -0.75, -0.61, 0.0, 0.54, 1.0, 0.53, 0.54, -0.0, -0.0, -0.0, 0.55, 0.55, 0.55, 0.63, 0.57, 0.57, 0.57, 0.57, 0.57, 0.57, 0.59, 0.59, 0.59, 0.59, 0.59, 0.59, 0.59, 0.0, 0.0, 0.0, 0.0, 0.0, 0.0, 0.0, 0.0, 0.0, 0.0, -0.65, -0.65, -0.65, -0.65, -0.65, -0.65, -1.2, -1.16, -1.16, -1.16, -1.16, -1.16, -1.61, -1.84, -1.84, -1.84, -1.84, -2.23, -2.23, -2.23, -2.51, -2.51, -2.84, -2.84, -2.84, -3.43, -3.43, -3.43, -3.43, -3.72, -3.88, -4.27, -4.27, -4.27, -4.11, -4.3, -4.3, -4.3, -4.11, -4.11, -4.11, -4.34, -4.11, -3.6, -3.07, -1.26, 0.0, -0.63, -1.9, -1.9, -1.9, -2.4, -3.07, -3.58, -4.0, -4.75, -5.3, -4.83, -3.85, -2.28, -0.78, 0.0, 0.0, -0.66, 0.0, 0.0, 0.45, 0.45, 0.45, 0.45, 0.45]}]